GFSFLT1_850_thetae_000.txt.gz
Theta_e
317 317 317 316 316 315 315 314 313 312 311 311 310 309 309 309 309 309 307 308 309 307 305 305 307 306 305 305 305 303 303 302
316 317 317 316 315 315 314 312 312 312 311 311 311 310 309 308 308 307 308 309 308 307 307 305 306 306 305 305 305 303 302 302
316 316 315 315 315 314 314 313 313 313 312 312 311 311 309 309 308 307 306 307 307 307 307 306 305 305 304 304 304 303 303 302
315 315 315 314 314 314 314 313 313 313 313 312 311 311 310 310 309 308 307 307 307 307 307 306 306 305 304 304 304 303 302 301
315 315 314 314 314 314 313 313 313 313 313 312 312 312 311 312 311 309 307 307 306 307 307 306 305 305 304 303 303 302 302 301
315 315 314 314 314 314 313 313 313 313 313 313 313 313 313 312 311 310 308 307 306 305 306 306 306 305 303 302 302 302 302 299
315 315 315 315 315 314 314 314 314 313 313 312 312 311 311 313 312 312 310 308 306 305 305 306 306 304 304 303 303 301 301 300
315 315 315 315 315 315 314 314 313 314 313 312 311 310 309 310 310 309 310 307 307 306 305 305 303 300 301 300 300 300 299 299
316 315 315 314 314 314 313 314 313 312 312 311 309 308 308 307 307 307 308 307 304 302 301 299 298 300 300 298 298 299 299 295
315 314 313 313 313 312 312 311 311 310 309 308 307 306 307 305 305 305 306 304 301 298 298 300 300 300 300 299 297 296 294 293
313 313 313 312 312 312 311 310 309 308 307 307 306 304 304 304 304 303 302 300 298 299 300 299 298 296 294 294 293 292 291 291
313 312 312 312 311 309 309 308 307 306 306 306 305 304 303 303 302 300 299 298 300 301 297 295 294 293 292 292 292 292 292 292
313 313 312 309 307 308 308 306 306 306 306 305 304 302 301 300 300 299 297 296 295 295 293 292 292 292 292 292 292 291 289 289
313 312 310 308 307 307 306 306 307 306 306 302 302 300 299 298 297 296 296 295 295 293 292 291 291 291 291 290 289 288 289 289
311 309 309 308 307 307 305 307 307 305 303 302 298 297 296 295 294 295 295 295 295 292 292 291 291 291 290 289 288 288 288 288
310 309 308 309 306 305 305 307 305 302 301 301 297 295 295 295 296 295 296 295 293 292 292 291 291 289 288 288 288 288 288 288
308 308 309 308 306 306 306 304 301 300 301 300 298 296 296 296 297 296 294 293 292 292 292 290 288 287 287 287 287 287 287 287
309 309 309 306 305 305 303 300 299 299 299 299 298 297 296 295 294 293 293 292 292 291 289 288 287 286 287 287 286 286 285 284
308 309 308 306 304 303 300 298 298 297 297 297 297 297 296 293 292 292 292 291 289 288 287 286 286 286 285 285 285 284 283 283

GFSFLT1_850_thetae_003.txt.gz
Theta_e
316 316 316 317 316 315 315 313 312 313 312 312 312 312 311 310 310 309 308 308 307 308 309 307 306 305 305 306 306 305 305 304
316 316 315 316 315 315 314 313 313 313 313 312 312 312 312 311 310 309 309 308 308 307 307 307 306 306 306 306 305 305 305 303
315 315 315 315 314 314 313 313 314 313 313 313 313 313 312 312 312 311 309 309 308 308 307 306 306 307 306 306 305 305 304 303
314 314 314 314 314 314 314 313 313 313 313 312 312 312 312 312 312 312 312 310 309 307 306 306 307 307 306 306 305 305 304 304
315 315 314 314 314 313 313 313 313 313 312 313 313 313 313 313 312 310 311 312 310 308 307 306 307 307 306 305 304 304 304 303
315 314 314 314 314 313 313 313 313 313 313 313 313 312 312 311 309 309 310 311 311 308 307 306 307 307 305 304 303 303 302 301
315 314 314 314 314 314 314 314 313 313 313 313 312 311 310 310 308 308 307 307 308 307 307 306 307 305 304 303 300 298 297 297
314 314 314 314 314 313 312 312 312 311 311 310 310 309 308 307 307 306 305 305 305 306 306 305 305 304 303 298 296 296 297 298
315 314 314 313 312 312 311 311 311 311 309 309 307 306 306 306 306 305 304 304 305 304 303 303 302 298 295 297 298 299 299 299
313 312 312 312 312 311 311 310 309 307 306 305 304 304 303 304 305 303 303 303 303 302 300 298 297 297 299 299 300 298 296 294
312 312 312 312 311 309 308 307 306 305 304 303 303 302 301 303 303 302 302 301 300 297 297 298 299 299 297 294 293 292 292 292
312 312 312 312 309 307 307 306 305 304 304 304 304 301 301 301 301 301 301 298 296 298 299 298 295 292 292 292 292 292 292 292
312 312 311 308 307 307 305 304 303 304 305 305 303 301 300 300 299 299 297 297 298 295 294 293 291 291 290 291 291 290 289 288
312 312 310 308 308 307 304 304 305 305 305 304 301 300 299 298 296 296 295 295 294 294 293 292 291 290 290 290 289 289 287 287
311 311 308 308 308 306 304 303 304 304 302 300 298 299 296 295 294 294 294 293 295 293 292 292 291 291 290 289 288 287 287 287
310 308 307 308 308 306 305 304 303 301 299 298 299 295 293 294 294 294 294 295 294 293 292 292 291 290 288 287 286 286 287 287
309 306 307 308 307 306 305 302 301 298 297 297 298 297 295 295 295 295 294 293 293 292 291 290 289 287 287 286 287 287 286 286
306 305 306 306 306 303 301 300 298 297 297 296 296 296 295 294 293 292 291 291 291 289 288 288 287 286 286 286 285 285 284 284
302 303 303 303 303 301 299 299 298 297 297 294 292 292 292 292 292 292 290 289 288 287 287 286 286 285 285 285 284 284 283 283

GFSFLT1_850_thetae_006.txt.gz
Theta_e
316 316 316 316 317 316 315 314 312 313 313 313 312 312 312 312 312 312 311 310 309 309 308 307 307 307 306 306 305 305 305 305
315 316 316 315 315 315 314 313 313 313 313 313 313 313 312 313 312 312 312 311 311 309 308 308 307 307 306 306 306 306 305 305
315 315 315 314 314 314 313 313 313 313 313 312 312 312 312 312 313 312 312 312 310 310 309 309 308 307 307 306 306 306 306 305
314 314 314 314 314 314 313 313 313 312 312 312 311 312 313 313 312 311 311 309 309 309 310 309 307 307 307 306 307 307 306 306
314 315 315 314 314 313 313 313 312 312 312 313 312 312 311 311 310 309 308 308 308 308 308 309 309 307 307 306 307 307 306 305
314 314 314 313 313 313 312 313 313 313 313 312 311 310 309 309 308 307 307 306 306 307 307 306 307 307 306 307 307 306 306 304
314 314 313 313 313 313 313 313 312 311 311 311 309 307 306 306 305 304 303 304 304 304 304 304 304 306 305 306 305 304 302 301
312 313 313 314 313 312 311 311 311 309 308 307 307 306 304 303 302 301 301 303 303 303 302 303 304 304 303 303 302 300 298 297
314 313 313 312 312 311 311 309 309 308 306 305 304 303 302 301 301 300 300 303 302 302 302 302 302 300 299 298 298 298 297 298
312 312 312 312 312 312 310 307 306 306 304 303 303 302 301 300 301 300 301 302 301 301 300 299 298 297 297 299 299 298 299 297
312 312 312 312 311 308 307 306 305 304 303 302 302 302 300 299 299 300 301 301 300 298 297 298 298 298 299 299 298 293 292 292
312 312 312 312 309 308 307 304 302 301 301 303 303 301 299 298 299 299 299 298 297 297 297 297 297 295 292 291 292 292 291 291
310 310 311 311 308 308 307 305 304 304 304 303 301 299 298 299 298 297 296 295 295 294 296 294 292 292 291 290 290 290 290 289
310 309 311 310 307 308 308 306 306 305 303 300 299 297 298 297 295 295 294 294 294 293 295 294 292 292 291 291 290 289 288 287
309 310 310 306 306 307 306 306 305 302 299 298 297 296 297 294 294 294 293 293 294 294 295 293 292 292 290 290 289 287 286 286
309 309 306 303 304 303 301 303 301 299 298 297 296 296 296 294 293 293 293 294 294 294 293 292 292 290 289 287 286 286 286 286
306 302 302 302 300 300 302 301 298 298 298 297 296 295 295 295 294 293 293 292 292 291 291 290 289 288 286 286 286 286 285 285
305 303 300 300 301 302 300 298 297 297 297 295 292 292 292 291 291 291 291 290 289 288 288 287 286 286 285 285 285 284 284 283
300 300 302 302 302 299 298 298 297 296 295 294 292 292 291 290 289 288 287 287 287 286 286 285 285 285 284 284 284 283 282 282

GFSFLT1_850_thetae_009.txt.gz
Theta_e
322 316 316 316 319 324 321 316 313 313 313 313 313 313 313 312 312 312 312 311 311 311 311 310 309 308 308 308 307 306 306 305
315 315 315 315 315 317 316 314 313 313 313 312 312 312 312 312 312 312 312 312 312 311 310 310 310 308 308 307 308 307 306 306
315 315 315 315 314 314 313 313 312 311 311 311 311 311 311 312 313 313 311 311 310 309 309 309 309 309 310 308 308 308 307 306
314 314 314 314 313 313 312 312 311 311 311 311 312 312 312 312 312 310 309 308 307 307 307 307 307 307 308 310 308 307 309 307
313 313 313 313 312 312 312 312 312 312 312 311 311 310 309 309 307 306 305 304 304 304 303 304 305 305 305 306 307 307 308 308
312 312 312 312 311 312 312 312 311 311 311 310 309 308 307 305 304 303 302 301 301 300 301 301 302 302 303 303 305 306 305 307
313 312 313 313 313 312 312 311 311 311 310 309 307 305 304 303 302 301 300 300 300 300 300 301 301 302 302 303 304 303 302 302
312 312 313 312 312 312 312 312 311 310 309 307 305 303 302 301 300 299 298 298 299 299 302 301 301 301 302 301 300 298 298 298
312 312 312 312 312 312 311 311 310 308 306 304 303 301 301 300 299 298 298 298 299 301 301 300 300 300 298 297 297 297 297 298
312 312 311 311 311 312 311 309 307 304 301 300 301 302 302 300 298 297 297 299 300 299 298 298 298 298 298 298 298 298 297 296
311 310 310 311 311 310 308 307 306 304 304 304 304 303 300 298 297 297 298 299 298 297 298 295 295 294 295 294 292 291 291 291
310 310 309 310 310 309 307 307 308 306 305 305 303 300 298 297 296 297 297 297 297 294 294 294 295 296 294 292 291 290 290 290
310 309 309 310 310 308 305 307 305 304 304 302 300 298 297 296 296 295 296 295 292 293 293 294 295 294 293 292 291 290 290 289
311 309 309 309 308 304 303 301 301 302 300 298 297 297 296 296 294 294 294 293 293 294 294 294 294 293 292 291 290 289 288 287
310 309 308 306 302 302 301 300 302 301 298 297 297 297 295 295 294 293 293 294 294 294 294 292 291 292 292 291 289 288 287 286
308 306 305 302 300 300 301 302 300 298 296 297 296 296 295 295 293 293 292 291 291 291 290 290 290 289 288 287 287 286 286 285
304 300 300 299 301 302 301 298 297 297 296 296 295 294 292 291 290 290 290 289 288 288 288 288 287 286 286 285 285 285 285 284
302 299 298 300 302 300 296 296 298 297 294 294 292 291 291 290 289 289 287 286 286 286 286 286 285 285 285 284 284 283 283 282
299 298 300 302 298 296 295 297 296 295 293 292 292 292 290 289 287 286 286 285 285 285 285 284 284 284 283 283 282 282 281 281

GFSFLT1_850_thetae_012.txt.gz
Theta_e
322 324 321 316 317 321 327 326 319 314 312 312 312 312 312 312 312 312 312 312 312 311 311 311 312 315 314 314 314 313 312 311
316 315 315 314 316 323 322 320 316 313 312 312 313 313 313 313 313 312 312 311 310 310 309 310 309 312 313 311 313 314 314 312
316 315 315 315 315 315 316 315 313 312 311 311 311 311 312 312 312 312 311 310 308 306 306 306 308 309 310 311 312 313 314 313
315 315 314 314 314 314 313 312 311 311 311 312 312 312 311 311 310 309 308 306 304 302 302 302 301 304 307 308 310 311 311 312
314 315 313 312 312 312 312 312 312 311 311 310 310 310 310 309 308 307 305 304 302 301 300 299 300 301 304 306 307 308 309 310
315 314 314 313 312 312 311 312 311 311 310 310 309 309 308 308 307 306 304 303 302 302 301 298 299 300 302 301 302 305 307 308
314 314 314 314 313 312 312 312 311 311 310 308 307 306 306 306 305 303 303 302 302 302 301 298 300 301 302 302 302 302 303 303
315 314 314 314 313 312 312 312 311 310 309 307 305 305 304 304 304 303 302 301 301 301 300 302 302 301 301 301 300 300 299 299
314 314 313 313 313 312 312 311 310 309 308 307 303 300 304 303 302 300 299 299 299 299 301 301 301 301 301 300 301 298 298 298
314 313 313 313 312 312 311 311 311 310 308 305 303 304 304 302 298 297 297 297 299 300 301 300 299 299 298 297 296 296 294 293
314 313 312 312 312 312 311 310 309 308 307 304 304 303 300 298 297 297 298 299 300 300 299 298 297 296 295 296 295 294 294 294
313 312 311 311 311 310 309 309 307 305 304 303 302 300 298 297 297 297 297 297 296 297 296 296 295 295 295 294 293 294 293 293
313 312 311 311 309 308 306 306 304 303 302 301 300 298 297 297 297 297 297 297 296 296 295 295 294 294 294 293 292 292 291 291
312 312 311 309 307 305 304 303 303 302 301 299 299 298 298 297 297 296 296 295 295 295 294 293 293 292 292 292 292 291 291 290
312 310 308 305 304 302 303 303 302 300 299 299 298 297 297 296 295 294 294 294 294 293 293 292 291 290 289 289 289 289 289 289
308 307 305 302 301 303 303 301 299 299 299 298 297 295 295 294 293 292 292 291 290 289 289 289 288 288 288 286 287 287 288 287
305 301 301 301 302 302 300 299 298 298 297 296 295 294 293 292 291 290 289 288 288 288 288 288 288 287 286 285 284 285 285 286
301 300 300 301 302 300 299 298 297 297 296 295 294 294 292 291 290 288 288 288 288 288 287 287 287 286 285 284 283 283 284 285
300 300 300 301 301 299 298 297 296 296 295 294 294 292 291 290 288 288 288 287 287 287 287 286 285 285 284 283 282 282 284 284

GFSFLT1_850_thetae_015.txt.gz
Theta_e
327 323 322 320 322 325 327 331 328 325 321 320 318 317 317 317 316 316 316 315 315 314 315 314 314 315 314 315 315 316 315 315
322 320 320 321 324 326 327 326 324 319 317 316 316 316 316 315 316 315 315 314 312 311 311 311 311 311 311 311 312 313 313 314
319 320 320 320 320 319 318 317 316 315 315 315 315 314 315 315 315 314 312 311 310 309 309 309 308 308 307 306 307 310 311 312
318 318 319 319 318 317 316 316 316 314 312 314 314 314 314 314 313 313 312 311 309 308 307 307 307 307 307 307 307 308 309 309
318 318 318 318 318 317 316 315 315 314 312 313 313 313 313 313 312 311 310 308 307 306 305 305 305 306 305 306 307 307 308 308
318 318 317 317 317 317 316 315 315 314 314 312 312 312 312 311 310 309 307 306 305 304 304 304 305 304 305 306 306 306 306 307
317 317 317 317 317 317 316 315 314 314 313 312 311 310 310 309 308 307 306 305 304 303 303 303 303 305 305 305 304 303 301 301
318 317 317 316 316 316 315 315 315 313 312 311 311 309 309 308 306 305 303 302 301 301 302 303 303 303 302 302 301 301 299 299
317 316 316 316 315 315 315 314 314 313 313 312 310 309 307 305 304 302 301 300 300 301 302 303 301 301 301 300 300 299 298 297
316 316 315 315 315 314 314 313 312 311 311 310 308 306 305 303 301 300 299 300 300 301 301 300 299 299 298 298 298 296 295 295
316 315 315 314 314 313 312 311 311 310 308 307 306 305 303 300 299 299 299 299 299 298 298 298 297 297 297 296 295 295 295 295
315 314 314 313 313 312 311 309 308 307 306 304 303 302 301 299 299 299 298 298 297 297 297 297 296 295 295 294 295 295 294 294
314 314 313 313 312 310 308 307 305 304 303 302 301 300 300 299 299 297 297 296 297 297 295 295 294 294 294 293 293 293 293 293
313 313 312 311 310 307 305 304 304 303 301 300 299 299 299 298 297 295 295 295 295 295 295 294 293 293 292 291 291 291 291 291
312 311 310 309 306 304 304 303 303 301 299 299 299 299 297 296 296 295 294 293 292 291 291 290 290 290 290 290 290 289 289 289
310 308 306 304 303 302 303 302 300 300 299 299 298 297 296 295 295 293 292 291 290 290 290 289 289 289 289 288 287 286 286 287
307 304 303 302 302 302 302 301 300 299 298 297 297 296 295 295 293 292 290 290 289 289 289 289 289 288 288 287 286 285 284 285
306 303 303 302 301 302 302 300 299 298 297 297 296 296 295 293 292 290 290 289 289 289 289 289 288 287 287 286 285 284 283 284
304 303 302 301 300 301 301 300 299 298 298 297 296 295 294 293 292 290 290 289 289 289 288 288 287 287 286 285 284 283 283 284

GFSFLT1_850_thetae_018.txt.gz
Theta_e
326 326 324 322 322 323 326 332 332 328 324 322 319 318 317 317 317 316 316 316 315 315 313 311 312 312 311 311 312 312 311 310
323 322 321 322 326 328 330 329 327 322 319 317 317 316 316 316 316 316 316 314 313 312 311 310 309 309 309 309 309 307 306 308
322 322 321 322 322 322 321 319 317 316 316 316 315 315 315 315 314 315 314 313 312 311 310 308 307 306 306 305 307 309 310 310
320 320 320 319 318 318 317 317 316 315 313 315 315 313 314 314 314 314 313 312 311 308 307 306 305 305 305 305 302 303 307 309
319 320 320 319 318 317 316 316 316 315 314 313 314 313 314 313 312 311 311 310 307 306 306 304 304 304 303 302 306 306 306 307
319 319 319 318 318 318 317 316 316 315 314 314 313 312 311 311 310 309 308 306 306 305 302 302 302 301 303 305 306 306 306 306
319 318 318 318 318 317 317 316 316 315 314 313 312 311 310 309 308 307 306 305 301 300 300 300 302 304 304 304 303 302 301 300
319 318 318 317 317 316 316 316 315 314 314 313 312 311 310 308 306 305 303 300 300 299 301 302 303 303 301 300 300 300 300 299
318 317 316 316 316 316 315 315 314 312 312 311 311 309 307 306 305 303 300 299 299 299 300 298 299 300 300 299 299 298 297 296
317 317 316 316 315 314 314 313 312 311 310 308 307 307 305 304 303 300 299 299 299 298 298 298 298 298 298 297 296 296 295 295
317 316 315 315 314 314 313 311 310 309 308 306 305 304 303 302 300 300 299 299 297 296 297 298 297 297 296 295 295 294 294 295
316 315 314 314 313 312 311 310 308 306 305 304 303 301 300 300 300 300 299 297 295 295 296 295 295 294 293 292 293 292 292 292
314 314 314 312 311 311 309 307 305 305 304 303 301 300 300 300 299 297 296 295 296 295 294 294 293 293 293 292 291 291 291 291
314 313 312 310 310 309 306 304 304 304 302 300 300 299 299 299 297 296 296 295 294 293 292 291 290 290 290 290 290 290 290 290
312 311 310 308 306 305 303 303 304 302 301 300 299 299 298 298 296 295 295 294 292 291 290 290 290 290 290 289 289 289 288 287
311 309 307 305 304 303 303 302 303 301 300 299 298 298 297 297 296 295 294 292 290 290 290 290 289 289 289 288 288 287 287 286
308 307 306 304 304 303 302 301 302 302 300 300 299 298 297 296 295 294 293 291 290 290 289 289 289 289 288 288 287 287 286 285
307 305 305 303 301 300 300 300 300 301 301 300 299 298 297 296 295 293 292 291 290 289 289 289 288 288 287 287 286 286 284 283
305 304 302 301 300 300 299 298 298 298 298 298 298 297 296 296 295 293 291 290 290 289 289 288 288 287 286 285 284 283 282 281

GFSFLT1_850_thetae_021.txt.gz
Theta_e
324 324 324 323 323 323 330 330 329 325 324 322 320 320 318 317 317 316 316 316 316 314 313 312 312 309 308 308 307 308 308 306
322 322 322 322 324 322 326 329 328 325 319 318 317 317 316 316 315 314 315 314 314 313 312 310 308 308 306 305 305 304 303 303
322 322 323 324 325 326 327 325 320 317 316 316 315 315 314 315 315 314 313 312 312 311 310 309 307 306 305 304 304 304 302 303
320 319 319 318 318 317 317 316 315 315 314 315 315 314 314 314 314 314 313 312 310 310 309 306 305 303 302 302 301 301 305 306
320 319 318 317 317 316 316 316 316 315 315 314 314 313 312 311 311 310 310 309 309 308 306 304 300 298 298 300 304 305 305 305
319 319 318 318 318 317 316 316 316 315 314 314 313 312 311 310 310 309 309 308 306 304 299 298 299 301 303 304 304 302 301 300
318 318 318 318 317 316 316 316 316 314 313 313 313 312 311 311 310 309 307 305 300 298 299 300 300 300 300 300 300 299 298 299
318 318 318 317 316 316 316 316 316 314 313 312 311 311 310 309 308 305 303 299 298 298 297 297 298 298 297 296 298 297 298 296
318 317 316 316 316 315 315 314 314 313 311 310 309 308 307 305 303 302 300 299 299 299 297 296 297 297 297 297 297 296 295 294
317 316 316 315 314 314 314 313 311 310 309 308 306 305 303 302 301 300 300 299 299 297 294 295 296 296 295 294 293 293 293 293
315 314 314 314 313 313 312 311 310 308 307 306 305 304 303 300 300 300 300 300 298 294 294 294 294 294 293 293 292 292 291 291
314 314 314 313 312 311 310 309 307 305 305 305 304 303 299 299 299 299 299 299 294 295 294 293 292 291 290 290 290 290 290 291
313 313 312 311 310 309 308 306 304 304 303 304 303 301 299 299 299 299 298 297 294 294 293 292 291 290 290 290 290 289 289 290
313 312 311 309 308 305 304 303 303 302 303 303 301 300 299 299 298 298 297 296 294 294 292 290 290 290 289 289 289 289 289 288
311 310 307 306 305 304 303 303 302 301 301 302 301 301 299 298 298 297 296 295 294 292 290 290 289 289 289 289 289 288 288 287
309 307 306 305 304 303 302 301 300 300 301 301 301 300 300 298 297 298 296 294 293 290 290 290 289 289 289 288 288 288 287 286
307 306 305 304 302 301 301 300 299 298 297 296 297 299 299 298 297 296 295 293 291 290 290 289 289 289 288 288 288 286 285 284
304 304 303 302 301 300 299 298 298 296 296 295 297 296 296 296 296 296 294 292 290 290 289 289 289 288 288 287 286 284 284 284
304 303 300 300 299 299 298 297 296 295 294 294 295 294 295 294 294 295 293 292 290 290 289 289 289 288 287 285 284 284 283 283

GFSFLT1_850_thetae_024.txt.gz
Theta_e
325 325 325 326 329 331 331 328 326 325 324 322 322 321 319 317 316 315 315 315 314 313 312 311 311 311 310 307 306 305 302 302
325 326 328 330 330 330 328 327 324 323 321 320 318 316 315 314 315 314 313 313 313 312 312 311 309 308 306 305 305 302 301 300
323 322 323 323 320 318 318 318 318 316 316 315 315 315 314 314 314 314 313 312 312 311 309 309 307 306 305 304 300 298 299 302
319 319 319 319 318 316 315 315 315 315 314 314 314 314 313 313 313 313 311 310 310 309 307 306 304 301 298 298 300 302 303 302
318 317 316 316 315 315 315 315 315 315 315 315 314 313 313 312 312 311 310 309 308 306 303 297 296 295 298 300 302 300 300 300
318 317 317 317 317 317 316 315 315 314 315 314 313 313 312 312 311 310 309 308 305 299 297 296 296 295 295 297 297 295 298 298
318 317 318 317 317 316 316 316 315 315 315 314 313 312 311 311 310 308 307 305 299 297 298 298 297 294 296 296 296 297 297 296
318 317 317 317 316 316 316 315 315 314 313 312 311 310 309 307 305 304 303 299 298 298 299 297 294 294 295 295 294 293 293 293
318 318 317 316 315 314 314 314 313 313 312 311 309 308 307 305 303 302 299 298 299 299 299 294 293 293 294 293 293 292 292 292
315 315 314 314 313 313 313 312 311 310 309 308 307 306 305 303 302 299 298 298 299 299 296 293 293 293 293 291 291 290 290 290
315 314 314 313 312 311 310 310 308 307 306 305 304 303 303 303 301 299 299 298 299 299 295 293 293 292 292 290 290 290 290 289
314 313 312 311 311 309 308 307 305 304 303 302 302 302 302 301 300 299 299 299 298 297 294 293 293 292 290 290 289 289 289 289
312 311 311 310 307 305 304 303 303 302 302 301 301 302 301 301 300 300 298 298 298 297 296 293 292 290 290 289 289 288 288 288
312 311 310 307 305 304 303 303 302 300 300 300 301 300 300 300 300 299 298 297 295 295 293 293 290 290 289 289 288 288 288 288
311 310 306 305 304 303 303 302 301 300 300 299 299 297 296 299 299 298 297 297 297 293 292 291 290 289 289 288 288 288 288 287
307 304 304 304 303 301 301 300 300 299 298 297 296 295 295 294 295 295 294 294 295 293 290 290 289 289 289 288 288 288 287 286
303 303 303 301 303 300 300 299 298 297 297 295 294 294 293 293 293 292 292 294 295 290 290 289 289 289 288 288 288 287 285 284
303 302 300 300 299 299 298 297 296 295 295 294 294 294 293 293 291 291 293 293 291 290 289 289 289 288 288 287 285 284 283 283
300 300 299 298 297 296 295 295 295 294 294 294 294 293 293 291 291 291 293 292 290 289 289 289 288 287 286 284 283 283 282 282

GFSFLT1_850_thetae_030.txt.gz
Theta_e
325 325 325 325 324 325 328 327 325 325 325 323 322 320 319 318 318 317 316 315 314 313 312 311 310 310 309 305 301 299 297 295
325 325 325 325 325 328 328 327 324 323 322 320 320 320 318 314 314 313 312 311 310 310 310 310 309 306 300 297 296 295 294 294
328 329 329 329 328 327 325 324 320 318 319 318 316 314 314 314 313 311 311 311 311 311 309 305 301 297 296 295 294 293 293 293
326 325 324 323 321 319 317 316 316 314 313 313 312 312 312 312 312 311 311 310 307 303 300 297 296 295 294 293 292 292 291 292
322 321 319 317 315 315 315 314 314 314 314 314 313 313 313 312 312 311 309 303 300 299 300 299 296 296 294 293 292 292 292 292
318 316 315 315 316 315 315 315 315 315 315 314 314 313 312 311 310 308 303 301 300 299 299 298 297 297 296 295 293 291 291 291
316 316 316 316 316 316 316 315 315 314 313 313 312 311 309 308 305 301 300 301 300 298 298 298 298 298 297 295 292 291 291 291
316 317 316 317 316 315 315 315 313 312 311 311 309 308 306 303 302 301 300 300 299 299 298 298 298 298 295 292 292 291 291 290
317 317 317 316 315 315 314 312 311 310 309 308 306 303 302 301 301 301 300 300 299 299 298 299 298 296 293 294 292 291 290 289
317 317 316 315 314 312 312 311 309 308 307 304 302 301 302 302 301 300 299 299 299 299 299 298 296 294 294 293 292 290 289 289
316 314 313 312 312 312 310 308 306 305 302 301 301 301 301 301 300 299 297 297 298 298 298 297 297 295 295 293 291 290 289 288
313 312 311 312 312 309 308 305 304 303 302 302 300 300 300 299 295 294 293 292 292 292 294 295 295 295 294 292 290 289 288 288
311 311 311 309 308 308 304 303 303 302 301 300 299 298 296 294 293 293 293 293 292 291 294 295 295 293 292 290 289 289 288 288
310 310 309 308 305 304 303 302 301 300 299 298 297 295 294 293 293 293 293 292 290 290 293 294 293 293 291 289 289 288 288 288
310 309 306 304 304 303 301 301 300 299 298 296 294 294 293 293 293 293 292 290 290 291 291 292 292 292 290 289 288 288 288 288
309 306 303 303 302 301 300 299 298 296 295 294 294 294 293 293 293 291 290 290 291 291 291 291 291 289 289 288 288 288 287 285
306 303 303 303 300 299 299 297 296 295 294 294 294 293 293 292 291 290 290 290 290 290 290 289 289 289 288 288 287 286 285 283
305 303 301 300 299 297 296 296 295 294 294 294 293 293 292 291 290 290 290 290 290 289 289 289 288 288 287 286 285 284 282 281
303 301 300 298 297 296 295 295 294 294 293 293 293 292 291 290 290 289 290 290 289 289 289 288 288 287 286 285 283 282 281 281

GFSFLT1_850_thetae_033.txt.gz
Theta_e
322 322 322 322 323 323 326 327 326 324 320 322 321 320 319 319 319 317 315 313 311 310 310 310 309 305 300 297 296 296 295 294
323 324 325 324 325 325 326 327 326 322 322 320 318 318 317 314 314 313 311 310 310 310 309 304 300 298 297 296 296 296 295 294
326 326 327 326 326 326 326 325 320 320 319 317 315 313 313 313 312 311 311 310 309 306 303 300 299 299 298 297 296 296 294 293
329 328 324 323 322 319 319 316 315 315 314 313 313 312 312 312 312 311 310 310 307 302 299 297 297 296 296 297 297 297 295 292
323 321 317 315 315 314 314 314 314 314 314 314 313 313 313 312 311 310 309 305 301 300 298 297 297 297 297 297 297 296 293 293
318 316 314 315 315 315 315 315 314 314 314 314 313 313 311 310 309 307 302 301 300 299 299 298 297 297 298 298 295 292 292 291
316 315 315 315 315 315 315 315 315 314 314 312 311 310 309 307 304 301 300 300 300 299 299 298 298 298 298 295 293 293 292 291
315 315 315 315 316 316 315 315 314 313 311 310 309 307 305 302 301 300 301 300 300 299 299 299 299 299 297 295 293 295 292 291
315 316 316 316 316 315 315 314 312 310 309 308 306 303 302 301 302 302 301 300 299 298 298 299 299 299 297 296 295 295 292 291
316 316 316 316 315 315 313 312 309 308 306 304 302 302 301 301 301 300 299 296 295 294 293 292 293 297 296 296 294 293 292 290
316 316 316 316 314 312 310 307 306 305 303 302 301 301 300 300 298 296 294 293 293 293 292 291 293 294 295 294 293 293 291 289
316 315 314 312 310 309 306 305 304 303 303 301 300 299 298 296 295 294 293 292 292 292 291 291 293 294 295 294 293 290 289 289
314 313 311 310 308 306 305 303 304 302 301 300 298 297 296 294 293 293 293 293 291 290 290 290 293 293 294 292 292 289 289 289
311 310 310 308 307 304 303 304 301 300 299 298 297 296 294 293 293 293 292 291 290 290 290 291 292 291 292 291 290 289 288 288
310 309 309 307 305 304 304 301 300 299 297 296 295 294 294 293 293 292 290 290 290 290 291 291 291 291 290 289 289 288 288 287
310 309 307 304 305 304 301 299 298 296 296 294 294 294 293 293 292 290 290 290 290 290 290 290 289 289 289 288 288 287 286 285
309 307 304 303 303 300 299 297 296 296 294 293 294 293 293 292 290 290 290 290 290 290 289 289 289 288 288 288 287 286 284 283
308 305 303 301 300 298 297 296 296 294 293 293 293 293 292 291 290 290 290 289 290 290 289 289 288 288 288 287 286 284 283 282
308 305 302 300 299 297 296 296 294 292 292 293 293 291 291 290 290 290 289 289 290 290 290 289 288 288 287 286 284 283 282 281

GFSFLT1_850_thetae_036.txt.gz
Theta_e
324 326 324 326 329 327 325 326 325 324 321 316 319 320 320 318 318 316 314 313 311 310 310 308 304 302 301 299 299 300 300 301
325 323 323 326 326 324 324 325 326 324 318 321 322 320 318 317 314 313 312 310 310 309 305 303 301 301 297 297 299 299 299 300
326 326 325 325 325 325 323 324 320 320 320 319 317 316 314 313 313 312 310 310 309 305 302 301 300 300 301 300 300 299 299 299
328 329 330 328 326 325 322 322 319 315 315 314 313 313 312 312 311 310 310 308 303 302 300 299 299 301 300 300 300 299 298 298
329 328 328 327 322 318 323 320 318 314 313 314 313 314 314 313 311 310 307 304 302 300 298 299 300 301 301 300 299 299 298 297
325 322 322 322 322 322 320 318 317 314 313 315 315 314 313 311 310 307 306 304 300 300 301 301 301 301 301 300 299 299 298 297
320 318 317 317 317 317 316 315 315 314 314 314 313 312 311 309 307 305 304 303 303 302 302 302 301 301 301 300 299 298 297 297
318 317 317 316 316 316 316 316 315 314 313 311 311 309 307 306 305 303 303 302 302 302 302 301 300 299 299 298 298 297 297 296
318 317 317 317 317 317 316 316 314 312 310 309 308 305 305 304 303 303 303 302 301 299 298 297 297 296 297 297 297 297 296 295
318 318 318 317 317 316 316 314 312 309 307 305 303 302 301 301 300 300 299 298 297 296 296 295 295 295 296 296 296 296 295 294
319 318 318 317 316 315 314 311 308 308 307 303 302 301 300 299 298 297 297 296 295 295 294 294 294 295 295 296 295 295 295 293
319 318 317 315 313 312 311 307 308 306 303 302 300 299 299 297 296 296 295 295 294 293 294 294 294 295 295 294 294 294 293 292
318 316 314 312 310 309 307 306 305 303 301 300 299 298 297 297 296 295 295 294 293 294 294 294 294 294 294 293 292 292 291 291
316 314 312 310 308 308 305 305 303 301 300 299 298 298 297 296 295 294 294 293 293 294 293 293 293 292 292 291 291 291 290 289
314 312 311 308 307 305 305 307 301 300 299 298 298 297 294 295 294 294 293 292 292 293 292 292 291 291 291 290 289 289 289 288
313 312 310 307 305 305 306 302 300 299 297 297 296 294 294 295 294 293 292 291 292 292 292 291 291 290 289 289 288 288 288 286
312 311 309 307 305 305 302 300 298 297 297 296 294 293 293 294 293 292 292 293 292 292 292 291 290 289 288 288 287 287 286 285
312 310 308 306 304 301 300 298 297 296 295 293 293 293 293 293 292 292 292 292 292 292 291 291 290 289 288 288 287 286 284 284
311 309 306 305 301 300 298 297 296 295 292 293 293 293 292 292 292 292 292 291 291 291 290 290 289 288 288 287 286 284 284 283

GFSFLT1_850_thetae_042.txt.gz
Theta_e
323 324 327 329 331 330 329 327 325 324 323 323 324 323 322 320 319 320 317 315 313 312 310 309 308 306 305 303 302 303 303 302
323 324 324 327 332 331 329 328 324 324 323 324 323 321 317 319 320 316 314 313 312 310 308 308 306 306 304 303 303 303 302 302
327 327 327 329 331 332 330 328 327 325 324 324 319 321 320 318 316 314 313 312 310 308 308 307 306 303 301 303 303 302 302 302
328 329 329 328 332 332 329 328 326 325 324 323 321 317 316 315 314 313 313 311 309 308 306 305 304 303 304 303 303 302 302 301
329 330 331 331 333 331 328 327 324 326 324 320 318 317 316 315 315 314 313 312 310 308 306 305 304 304 303 302 302 301 301 301
329 331 331 331 330 329 329 327 326 324 318 318 317 317 316 316 315 314 313 310 309 306 305 305 304 304 303 302 301 301 301 300
330 331 332 330 330 329 328 325 325 321 319 318 317 318 316 315 314 313 310 308 306 304 304 304 304 304 300 299 298 298 297 298
331 331 331 330 328 327 327 324 321 320 318 318 318 317 315 313 311 310 309 306 305 304 303 303 300 298 298 297 297 297 297 297
328 329 327 326 326 325 323 322 320 319 318 318 317 314 312 309 309 308 306 304 303 302 300 298 297 297 296 296 296 296 296 298
326 325 324 324 323 322 320 320 319 318 318 316 314 310 309 308 306 306 303 302 300 299 297 296 295 295 296 296 296 296 297 297
324 322 321 321 321 321 320 320 319 317 316 314 311 309 307 306 305 302 301 300 299 297 296 295 295 296 296 296 296 296 295 295
324 321 321 321 321 321 321 320 317 315 313 311 308 307 305 303 302 301 300 298 297 297 295 295 296 296 296 295 294 293 293 293
323 322 321 321 321 321 320 319 316 313 310 308 307 305 303 302 301 300 298 298 297 296 295 295 295 295 294 292 292 292 291 291
323 322 322 322 321 320 319 317 314 311 308 308 305 303 302 301 300 299 298 297 296 295 295 295 295 294 293 292 291 292 292 291
323 323 322 322 321 319 317 314 311 308 308 304 303 302 301 301 300 298 298 297 295 295 295 295 295 294 292 292 292 291 290 289
322 323 322 322 320 318 315 312 309 307 305 303 303 301 300 300 298 297 296 296 295 295 295 295 294 293 292 292 291 290 288 288
321 321 321 321 319 316 313 310 307 306 304 302 301 300 299 298 297 297 296 295 294 294 294 294 294 292 292 292 291 290 289 287
320 320 319 319 317 314 311 308 307 304 302 301 300 299 298 297 296 295 295 294 294 294 293 293 294 292 291 291 291 290 288 286
317 318 318 317 315 312 310 308 304 301 301 299 298 297 296 296 295 294 294 294 294 293 293 293 293 292 291 291 290 289 288 286

GFSFLT1_850_thetae_045.txt.gz
Theta_e
326 326 327 326 327 326 323 326 327 328 326 325 325 324 322 320 319 319 319 318 314 313 311 310 310 308 307 304 301 302 302 301
325 327 328 327 328 329 328 326 327 327 324 322 323 324 323 321 321 319 319 313 312 311 310 309 308 307 306 301 302 302 301 301
324 326 329 329 329 330 330 328 325 323 322 323 323 322 319 319 319 318 314 312 311 310 309 308 308 307 304 301 301 300 300 302
323 323 326 331 331 331 329 328 326 325 324 324 320 320 319 318 316 313 312 312 311 310 309 308 307 304 303 303 302 300 302 301
324 325 327 329 332 332 330 329 327 324 324 322 321 320 315 313 314 314 313 313 312 310 308 306 305 304 304 303 303 302 301 301
326 327 328 329 331 332 330 327 326 325 323 323 318 315 316 316 315 314 314 312 311 308 306 305 305 304 304 304 303 298 297 297
328 329 330 330 330 331 329 326 324 324 324 319 318 317 317 316 315 314 313 311 309 308 306 305 304 304 304 302 294 294 296 296
329 330 331 331 330 330 328 327 326 324 319 319 317 317 316 315 314 313 310 308 306 305 304 304 304 303 296 293 294 294 295 295
330 331 332 331 329 328 325 327 325 324 319 318 317 318 316 314 313 311 310 309 307 307 304 303 299 295 294 293 293 295 296 297
331 331 331 329 328 325 326 326 324 321 319 318 318 318 317 315 311 310 309 308 306 304 300 298 295 294 294 294 295 296 296 296
328 329 328 327 326 327 325 322 320 320 319 318 318 317 315 311 309 306 307 304 301 301 298 295 294 294 294 295 295 295 294 292
326 327 326 326 326 326 324 321 319 319 318 318 316 314 311 308 307 305 301 301 300 298 296 295 294 295 295 294 293 291 291 292
326 324 323 322 321 321 321 320 320 319 318 316 313 311 308 307 305 301 300 300 299 297 296 294 294 295 295 294 292 291 291 291
325 324 321 321 320 320 321 320 319 317 316 313 311 308 306 304 301 302 300 299 298 297 296 293 294 294 295 294 291 292 292 291
325 324 321 321 321 321 321 320 319 316 313 311 309 305 303 302 301 299 299 298 298 296 293 293 294 295 294 294 292 292 291 291
325 323 322 321 321 321 320 320 319 315 311 309 305 303 303 301 300 300 299 298 296 294 293 294 294 295 294 294 292 292 291 291
322 323 322 322 322 320 319 318 316 311 309 305 303 302 300 300 300 298 297 296 295 294 294 294 294 293 294 293 291 292 291 290
320 321 321 321 320 320 317 314 311 309 306 303 301 300 300 298 297 295 295 295 294 294 294 294 293 293 293 293 291 290 290 289
316 318 319 319 318 316 313 310 308 306 303 301 300 298 297 296 295 294 294 294 294 294 294 294 292 292 292 291 290 291 290 289

GFSFLT1_850_thetae_051.txt.gz
Theta_e
330 327 325 328 328 329 329 324 322 323 325 325 325 326 327 327 325 324 319 319 320 321 322 318 311 310 309 308 305 302 300 298
330 328 328 329 329 328 327 326 323 322 324 325 327 328 327 325 322 318 318 319 319 318 314 311 310 309 309 307 304 302 301 300
331 329 329 328 328 327 325 325 324 321 324 326 327 327 326 323 319 319 319 318 317 314 311 310 310 310 307 306 304 303 302 301
331 330 329 328 327 325 323 318 316 317 323 327 327 326 324 321 321 321 320 318 316 312 311 311 310 308 307 305 304 304 303 303
329 327 328 327 326 325 324 320 317 319 322 326 326 325 324 323 323 321 318 317 313 311 311 310 308 307 306 305 304 304 303 301
327 327 326 326 326 325 325 322 323 323 325 326 326 326 323 323 320 318 317 314 312 311 310 309 309 308 306 305 304 303 300 294
325 326 326 326 326 325 325 325 326 326 327 327 325 324 323 322 319 317 314 312 312 311 309 307 307 306 306 304 302 299 294 292
324 325 326 326 325 325 326 326 327 327 328 326 324 323 322 320 317 314 313 313 312 311 309 307 307 304 305 300 299 294 292 292
322 324 325 325 326 326 327 327 328 327 327 326 324 321 318 316 315 315 315 314 313 311 307 308 305 305 300 302 299 292 292 293
321 322 324 325 326 327 327 328 328 328 327 325 323 321 318 317 316 317 316 314 312 309 308 305 305 302 299 295 292 293 293 293
322 322 322 323 325 326 327 329 329 328 324 322 323 322 320 318 317 316 315 312 311 308 307 305 299 298 296 293 292 293 293 292
324 325 324 324 326 327 328 329 328 327 325 324 324 322 320 318 316 314 313 310 307 308 306 301 299 297 296 292 292 292 293 293
327 327 327 327 327 329 330 328 326 323 324 325 324 321 318 316 313 311 310 307 308 304 302 299 298 297 294 292 292 293 294 294
327 328 328 327 328 330 329 327 324 324 324 324 322 317 317 314 313 309 307 307 303 304 299 298 297 294 293 292 292 293 294 294
327 327 327 327 329 327 326 326 325 325 324 322 318 317 315 311 307 309 305 302 300 298 297 296 295 294 293 293 293 293 293 293
326 326 327 328 328 327 326 325 323 322 320 319 316 313 311 310 309 303 302 298 300 297 295 296 295 294 294 293 293 293 292 293
323 325 326 325 325 326 324 323 320 320 318 316 312 311 309 305 302 301 299 298 296 297 300 297 294 294 294 294 293 292 292 292
319 320 321 322 321 322 322 321 319 317 316 312 310 307 304 301 300 299 296 297 300 299 297 294 294 293 293 293 293 292 292 291
318 319 320 320 320 319 319 318 316 313 311 308 306 303 300 297 297 298 300 299 296 294 294 293 293 292 292 292 292 291 291 290

GFSFLT1_850_thetae_054.txt.gz
Theta_e
327 325 324 321 322 324 323 324 322 316 314 319 322 325 325 325 326 326 325 325 323 321 321 321 320 315 309 309 307 303 301 300
328 327 326 322 324 325 324 327 325 319 314 321 325 325 326 326 325 325 324 321 319 320 321 321 316 309 309 308 305 303 303 302
329 329 327 324 324 325 327 328 327 322 318 320 324 324 325 326 326 325 320 318 319 320 319 314 310 309 309 308 305 304 304 303
330 329 328 326 326 325 325 326 324 324 323 321 323 325 325 325 325 323 319 318 318 317 313 310 309 309 308 306 305 305 304 303
330 330 329 327 326 326 327 326 325 324 324 321 321 324 324 324 325 323 320 319 317 313 310 309 309 308 306 305 304 303 303 301
330 330 328 327 327 327 326 327 325 323 323 322 322 323 325 325 323 322 321 318 314 312 310 309 308 306 305 304 303 301 299 296
331 331 331 330 328 328 327 326 325 323 321 319 321 324 325 324 322 321 320 316 313 311 310 309 308 306 306 306 307 301 302 300
329 327 329 328 327 327 327 326 325 324 321 319 322 324 325 323 322 321 318 316 314 312 311 310 307 306 308 307 303 303 299 295
328 327 326 327 326 326 326 326 325 325 323 322 324 326 326 323 322 319 318 316 313 312 310 307 305 306 306 306 301 298 294 291
327 327 326 325 325 325 324 325 325 325 325 325 326 326 324 323 320 318 315 314 313 312 311 308 306 308 306 304 296 293 292 292
322 325 325 324 324 324 325 325 325 325 325 326 326 325 324 322 317 316 315 315 314 313 309 306 309 307 300 297 295 292 291 292
321 321 321 321 322 323 324 325 326 326 327 327 326 323 322 322 320 317 315 316 314 310 308 310 307 302 301 297 293 293 293 293
322 322 323 323 322 323 323 324 326 326 328 327 325 323 323 323 321 320 318 315 312 311 310 307 304 299 296 294 294 292 293 294
325 325 325 325 325 326 325 325 327 326 324 324 324 323 323 323 321 318 314 312 310 307 305 303 298 297 294 295 293 294 293 293
325 325 324 326 326 327 327 327 325 324 324 324 323 323 323 319 314 312 309 307 306 304 300 298 295 296 296 294 294 293 293 293
323 326 327 327 328 328 327 326 325 325 324 324 323 321 317 312 309 307 306 305 301 298 297 299 298 296 295 294 294 293 293 292
321 323 324 324 325 326 326 325 324 323 322 321 320 315 310 308 307 306 304 299 298 297 300 298 299 295 294 294 293 293 293 292
318 319 320 321 321 321 321 322 321 320 318 316 312 309 307 306 303 300 298 297 299 300 300 298 295 294 294 293 292 292 292 291
317 318 318 319 319 319 319 318 317 316 314 311 309 306 302 299 297 297 297 299 300 300 296 294 293 293 291 290 291 291 291 291

GFSFLT1_850_thetae_057.txt.gz
Theta_e
326 324 323 322 320 320 324 323 320 319 314 313 316 317 322 324 323 323 323 324 324 324 323 322 320 320 318 310 309 307 304 303
326 326 324 323 322 322 324 321 321 320 315 313 315 318 317 320 324 323 324 325 325 323 321 321 320 319 312 309 308 306 305 304
326 327 325 325 321 321 323 323 323 324 319 313 314 317 320 323 325 325 324 324 323 320 320 320 320 316 309 308 307 306 304 304
327 327 327 326 324 321 322 324 324 326 324 317 313 319 323 325 325 324 324 323 320 319 319 319 316 309 308 308 307 305 304 303
327 328 328 327 325 324 323 325 326 326 327 323 318 318 321 322 322 323 323 321 318 318 318 315 310 308 309 307 306 305 305 302
325 328 328 327 327 326 325 325 326 327 326 326 323 322 323 322 323 324 322 318 318 318 316 311 309 308 309 306 305 304 303 305
326 327 328 328 327 326 326 326 326 326 326 325 324 323 323 322 323 324 322 319 318 317 314 311 309 308 308 306 306 305 303 304
326 327 328 329 329 328 327 326 326 326 327 326 324 322 322 324 325 325 322 321 318 317 313 312 310 308 306 305 305 304 301 300
328 326 326 328 329 329 329 326 326 326 326 326 324 322 323 322 324 325 322 320 319 316 314 312 309 308 306 305 307 304 298 295
325 329 328 328 328 327 326 327 326 326 326 326 325 324 324 322 322 323 321 319 317 315 314 311 309 306 306 307 307 299 298 295
320 323 326 328 328 327 326 326 325 326 326 326 325 324 323 323 324 322 321 318 316 314 313 311 308 306 307 306 300 297 299 293
322 321 321 323 324 325 324 324 324 325 325 325 324 324 324 325 325 322 321 319 315 313 311 306 304 307 304 302 298 299 294 293
322 321 321 321 321 322 321 322 323 324 325 325 325 325 325 324 322 321 321 319 316 312 311 306 307 306 303 302 300 296 294 293
322 322 323 323 323 323 323 323 324 324 325 326 324 323 323 322 322 322 321 315 316 311 306 307 305 302 301 299 297 294 293 293
323 324 323 323 324 324 325 325 326 326 326 325 325 324 323 322 320 320 317 314 311 306 306 304 303 302 300 297 294 294 294 293
318 323 325 326 326 326 326 327 327 327 326 324 323 320 320 318 317 316 312 309 306 305 305 302 301 301 300 296 295 294 294 293
320 321 322 322 323 324 324 325 324 323 322 320 319 318 317 314 311 307 306 305 303 301 300 300 300 300 298 294 294 294 293 293
318 319 319 320 320 320 321 321 321 319 317 317 315 313 309 307 305 304 303 300 298 298 299 300 298 298 294 294 293 293 292 292
316 316 316 317 317 318 318 317 316 315 314 311 308 306 306 304 301 299 297 298 299 300 299 298 294 294 293 292 291 290 290 290

GFSFLT1_850_thetae_060.txt.gz
Theta_e
328 327 326 323 322 323 323 322 323 320 319 314 312 315 317 323 323 325 325 324 322 322 323 323 322 320 318 317 313 308 307 307
329 327 327 326 323 324 325 325 325 325 324 317 320 320 321 320 323 324 323 321 322 323 323 323 321 318 318 318 310 308 308 307
329 329 327 327 325 325 325 327 327 324 324 321 318 317 321 322 323 321 322 323 323 324 323 323 320 316 318 315 309 309 308 308
329 329 329 328 327 327 326 327 328 326 327 324 321 321 321 320 321 319 323 323 323 324 323 321 319 318 316 310 308 309 309 306
329 330 329 329 328 328 327 327 328 328 326 326 323 320 320 321 321 321 323 323 324 323 321 320 319 317 312 309 309 308 307 305
328 329 330 330 329 329 328 327 327 328 327 326 326 323 320 323 323 322 323 324 323 321 319 319 318 316 311 308 309 307 306 305
327 327 330 330 330 330 327 326 327 327 326 326 326 326 325 324 321 322 323 324 323 321 319 318 316 311 310 308 308 308 306 307
330 328 329 330 331 331 328 327 328 327 327 326 327 327 326 323 321 322 323 324 324 323 319 317 314 311 309 308 307 305 306 308
329 330 329 330 331 331 328 326 328 328 327 326 327 326 325 323 321 321 322 324 325 321 319 316 313 311 309 307 305 306 306 306
327 328 329 331 331 331 330 329 329 330 328 326 327 326 324 321 319 320 323 324 323 320 317 315 314 310 308 305 304 306 304 302
323 326 328 330 331 331 331 330 330 330 330 327 326 326 325 324 323 323 323 322 322 320 319 316 312 310 308 304 306 305 301 301
323 323 324 326 329 329 329 329 329 329 328 327 325 325 325 325 324 323 323 324 322 321 317 314 314 310 305 303 304 301 301 300
324 324 324 325 326 327 328 327 327 327 327 326 324 324 324 324 324 323 321 322 321 315 314 314 312 308 304 305 303 301 300 297
325 325 325 326 327 327 327 327 327 327 325 325 326 325 325 324 323 323 322 322 318 316 312 311 307 304 304 303 302 300 298 297
325 326 327 327 328 326 324 324 324 325 325 327 328 326 326 324 323 322 319 317 316 313 309 305 304 303 301 301 301 298 298 296
321 326 328 328 328 327 326 326 326 326 327 324 323 321 321 320 319 317 314 314 311 308 305 304 302 301 300 300 299 298 297 297
321 323 325 325 324 322 325 325 323 322 322 321 319 318 318 316 314 312 310 308 306 304 303 302 303 301 300 299 298 296 296 296
319 320 320 320 321 321 321 321 319 319 318 316 315 313 313 310 309 307 306 304 303 302 302 302 300 300 299 296 294 294 294 295
315 315 316 316 317 317 316 315 316 315 314 313 311 309 307 305 304 304 303 302 302 301 300 299 298 296 294 293 293 292 293 293

GFSFLT1_850_thetae_063.txt.gz
Theta_e
327 326 324 323 324 324 323 322 323 323 323 322 321 322 321 320 322 323 324 325 324 323 323 322 322 319 320 318 315 313 312 311
327 327 325 324 324 323 323 322 322 324 324 322 320 321 321 322 323 325 326 325 325 324 323 322 322 319 317 316 316 314 311 311
327 327 326 324 324 324 324 323 323 325 325 324 321 319 320 321 322 325 326 325 325 322 322 322 322 319 317 316 315 313 312 311
328 327 328 326 325 325 326 326 325 325 325 324 322 320 320 322 323 324 324 325 322 323 323 322 321 321 317 317 315 313 313 311
329 330 329 329 328 326 326 327 326 327 327 325 324 321 320 321 323 324 324 323 320 323 322 321 321 320 317 317 315 313 312 312
327 329 330 330 330 329 328 327 327 328 328 327 327 324 322 322 323 324 324 323 323 322 322 321 322 318 316 315 313 312 311 311
326 328 329 329 330 330 330 329 328 328 329 329 329 327 326 322 322 326 325 325 322 322 323 323 321 319 317 314 312 311 310 309
327 326 328 329 329 330 331 331 329 329 329 329 329 329 329 327 326 326 322 323 322 322 322 323 321 318 314 312 311 310 309 306
328 328 327 329 330 331 331 331 331 330 330 331 331 330 330 329 327 323 323 320 321 321 320 323 319 315 312 310 310 309 308 305
327 328 329 328 330 331 332 332 331 331 330 331 332 331 331 330 328 324 322 320 320 321 323 321 319 315 310 310 310 308 306 304
326 328 329 330 330 331 333 334 333 332 332 332 331 329 329 329 328 324 321 320 321 322 322 321 318 314 310 310 309 307 303 305
326 326 327 329 331 333 334 334 334 333 333 332 331 329 328 327 326 325 322 322 323 322 320 319 314 312 311 310 306 304 303 304
325 326 326 327 329 331 333 333 334 333 333 333 331 329 328 327 324 322 323 322 322 321 319 318 314 311 312 311 303 303 302 302
324 325 326 327 328 329 331 331 331 330 330 330 329 327 327 323 323 323 322 321 321 319 314 313 312 311 310 304 303 302 302 301
323 325 327 329 330 330 330 330 330 329 329 328 327 324 323 322 321 320 320 319 317 315 313 312 309 306 304 303 302 302 301 299
321 326 327 329 330 329 328 326 325 325 325 325 323 323 322 321 320 319 319 316 315 312 310 307 305 303 303 303 302 300 299 299
323 325 329 330 330 325 325 325 326 326 325 322 322 320 319 318 316 315 314 313 311 308 306 304 303 303 302 301 300 299 298 297
324 326 328 327 325 322 319 320 321 321 320 318 317 315 314 312 310 311 310 308 306 305 304 303 303 301 300 299 296 295 296 296
322 323 322 322 321 319 318 316 314 312 311 310 308 307 307 307 307 305 305 304 303 302 301 300 300 298 297 295 293 293 293 294

GFSFLT1_850_thetae_066.txt.gz
Theta_e
326 326 323 322 317 314 315 317 321 322 321 323 322 321 316 315 317 320 320 316 316 319 323 323 322 321 320 319 316 316 313 312
328 326 322 321 321 320 320 321 322 322 319 321 321 321 318 318 319 321 323 323 321 322 321 322 323 322 320 320 318 316 315 312
326 325 323 324 324 324 323 323 322 322 323 321 321 321 320 320 321 322 326 324 324 324 324 325 323 321 319 319 318 318 317 312
327 326 325 325 324 324 323 322 322 322 324 322 321 321 320 321 321 323 325 325 323 324 324 324 323 322 321 318 318 318 317 313
327 328 326 325 324 324 324 323 322 324 325 325 324 321 320 321 321 322 323 324 324 323 324 323 323 323 321 318 318 317 316 313
328 327 327 326 325 325 325 326 325 325 325 325 325 322 321 320 321 322 324 326 325 323 323 323 323 322 322 321 316 316 315 313
329 329 328 329 328 327 326 326 326 327 327 327 326 326 323 321 321 322 324 325 324 322 324 322 321 319 322 321 316 314 314 313
326 329 330 330 330 329 328 327 327 327 327 328 327 328 327 324 323 323 323 324 321 319 320 322 320 321 322 319 313 314 312 312
327 326 330 330 330 330 330 330 328 328 328 329 329 329 329 329 325 325 324 325 320 321 321 321 321 321 322 318 315 312 312 311
328 328 327 330 330 330 330 331 330 329 329 328 329 323 329 328 329 328 326 325 324 322 321 321 321 322 320 316 313 311 311 310
324 328 328 327 330 330 330 330 332 331 330 330 329 330 330 330 330 330 328 326 325 323 322 322 321 320 317 315 312 311 311 308
325 327 329 329 328 330 331 331 331 332 332 331 331 331 332 330 328 327 326 326 324 322 321 321 321 320 318 313 311 311 310 307
325 326 326 329 330 330 333 333 334 334 333 332 332 332 331 328 328 327 326 325 322 323 320 320 320 317 313 312 311 310 307 304
324 326 326 327 328 331 333 334 335 335 333 331 330 331 328 327 325 325 323 322 321 320 320 318 315 313 311 309 308 304 303 303
322 324 326 328 329 330 331 333 333 332 331 331 331 330 327 326 323 322 322 321 320 318 316 314 313 311 309 307 304 303 303 303
321 324 327 329 330 330 331 331 331 330 330 329 328 326 325 321 321 321 320 319 318 316 314 312 310 307 306 304 303 303 302 300
322 322 328 331 331 331 330 330 330 328 327 327 326 323 321 320 319 319 317 315 313 312 310 308 306 304 303 303 302 300 299 298
324 325 330 331 330 329 326 325 325 324 322 321 320 319 318 317 314 312 312 311 310 308 306 305 304 303 302 300 298 296 294 294
325 328 328 326 324 323 320 320 319 318 318 316 315 313 311 309 309 309 308 307 306 304 303 303 301 299 298 297 295 294 293 292

GFSFLT1_850_thetae_069.txt.gz
Theta_e
324 324 323 323 322 321 321 319 316 314 314 316 316 319 316 315 313 313 314 313 313 317 318 320 320 321 320 319 319 317 316 312
323 321 321 321 320 319 318 316 314 315 314 315 313 315 317 317 315 314 314 315 313 314 316 318 322 322 321 320 320 318 315 313
325 320 319 317 317 317 319 317 318 317 314 319 322 321 320 318 317 317 314 314 319 317 315 318 321 322 322 322 320 318 317 316
325 322 319 317 316 317 319 320 321 321 321 323 322 320 319 317 315 317 318 320 323 323 323 322 323 323 322 321 320 318 317 316
326 324 322 322 322 321 321 321 321 322 321 319 317 319 320 319 315 318 321 322 323 324 323 322 322 320 322 322 320 318 316 316
326 325 324 324 323 323 323 323 323 321 321 323 319 319 320 320 320 320 321 323 324 323 324 323 322 322 323 322 322 320 317 316
327 326 326 325 324 324 323 323 321 320 319 324 325 323 322 321 321 321 322 322 322 323 323 323 321 319 321 322 321 320 319 317
327 327 326 325 325 324 324 323 324 324 323 323 324 326 324 321 320 320 321 322 324 323 323 323 321 321 322 321 320 320 321 316
327 327 327 327 326 325 324 324 324 325 325 325 325 324 325 324 323 320 321 321 322 322 323 323 321 323 322 321 321 320 317 315
327 328 328 327 328 327 327 326 326 326 326 327 327 328 326 326 326 323 322 322 322 322 324 321 320 322 321 320 320 319 316 313
326 327 329 329 329 329 329 329 328 327 326 326 326 327 329 327 327 326 325 324 324 325 325 322 322 321 320 320 319 317 314 312
325 327 326 328 329 330 329 330 329 329 329 327 328 328 328 330 328 328 327 327 323 324 324 323 322 320 321 320 318 316 313 311
322 324 327 328 330 330 330 329 329 329 330 330 329 329 329 328 328 327 319 321 327 324 324 323 321 321 320 319 316 313 311 310
323 322 322 327 329 330 330 331 331 331 330 330 330 330 329 326 321 323 325 326 325 323 321 320 319 319 318 316 313 310 309 307
324 323 322 326 327 330 332 332 330 324 322 322 329 328 328 327 326 325 324 322 321 320 320 319 319 316 313 312 310 308 307 304
324 324 326 325 324 329 330 331 330 329 327 329 329 329 327 325 323 323 321 321 321 320 319 316 313 311 310 309 308 306 304 303
321 325 327 327 326 324 329 329 329 329 330 329 327 326 325 323 322 322 321 319 318 316 314 312 311 309 308 306 304 303 302 300
322 324 329 329 329 328 328 329 327 325 325 325 325 323 323 321 320 319 317 315 314 313 311 309 307 306 304 303 302 300 297 295
323 324 328 330 330 330 330 329 327 326 324 323 321 320 319 317 315 314 312 311 310 309 306 305 303 303 301 299 297 295 294 293

GFSFLT1_850_thetae_072.txt.gz
Theta_e
328 325 324 323 323 322 322 322 322 320 315 317 320 318 316 316 316 320 318 317 314 314 314 314 317 318 320 320 320 319 319 318
326 324 323 322 322 322 322 321 320 319 315 318 318 317 318 319 319 318 315 315 314 313 314 315 318 318 320 321 320 319 319 316
322 323 322 322 322 322 321 321 319 319 316 315 316 316 317 317 315 313 313 313 313 313 313 314 313 317 320 321 321 320 319 316
322 321 320 320 320 321 320 317 316 316 314 316 316 318 317 316 315 315 313 313 315 315 315 313 312 315 320 322 322 321 320 317
323 319 319 319 319 319 316 315 315 314 314 313 313 314 315 317 317 316 314 315 314 316 319 320 320 320 321 322 323 322 320 318
326 321 318 317 319 318 317 316 316 314 315 315 319 320 320 319 318 317 314 314 317 319 320 323 323 323 322 322 321 322 321 319
327 325 322 320 317 316 318 319 320 319 318 318 321 322 320 319 316 316 316 314 316 320 322 322 324 324 323 322 321 321 322 320
327 325 323 321 320 319 319 319 319 318 319 320 319 319 316 313 314 317 318 319 319 320 321 322 323 323 322 322 321 322 322 321
327 326 326 324 323 322 322 322 320 319 318 318 316 318 319 321 322 322 320 319 320 320 321 322 322 322 324 322 321 321 322 321
326 326 326 326 325 324 321 320 322 321 319 320 318 319 322 323 325 323 322 321 320 321 321 322 322 323 322 321 321 322 321 319
326 326 327 326 327 326 325 322 320 319 320 321 323 322 323 323 324 325 324 321 322 320 321 321 322 323 323 321 322 321 320 318
326 326 327 327 327 326 327 326 325 323 323 323 323 324 325 325 324 324 324 323 322 322 319 318 323 324 321 321 321 320 318 316
326 326 326 326 327 327 326 327 327 324 324 324 325 326 326 326 327 325 325 323 321 318 323 321 324 323 323 321 319 319 317 315
324 325 326 326 327 327 327 327 326 326 326 327 326 327 326 326 326 323 325 322 318 321 322 323 324 322 320 320 319 317 314 311
321 324 321 323 328 328 329 329 329 328 329 327 320 324 328 327 325 326 324 323 324 324 324 323 321 320 319 318 316 314 311 310
322 323 322 323 325 328 329 329 330 330 330 327 322 322 321 326 327 326 325 324 324 323 321 319 319 319 317 315 312 310 309 307
324 324 324 324 324 325 329 330 331 331 330 328 325 323 326 327 325 324 322 321 320 320 320 318 317 315 313 310 309 307 305 304
322 323 324 324 325 325 325 329 330 330 329 327 324 325 323 323 321 322 320 320 319 318 316 314 312 311 309 307 305 304 303 302
321 320 324 325 326 327 327 328 328 327 327 326 325 323 321 320 320 319 318 317 315 314 312 310 309 307 305 304 303 302 299 296

GFSFLT1_850_thetae_075.txt.gz
Theta_e
327 326 323 322 323 323 322 322 321 320 316 318 322 322 318 320 318 315 316 316 316 315 314 315 315 318 319 319 320 319 319 318
327 326 323 321 323 322 322 323 322 321 319 318 321 321 319 317 315 316 317 318 316 315 317 317 315 315 317 319 320 319 319 318
328 326 323 322 322 322 321 322 323 322 319 317 320 321 320 318 316 317 317 315 316 317 317 315 315 314 315 318 320 320 319 318
329 323 322 322 322 321 321 322 322 322 319 318 321 320 319 320 318 318 318 316 317 317 316 314 314 314 314 315 319 321 321 319
328 324 319 319 321 322 321 322 321 321 317 317 319 318 319 318 317 316 315 314 315 315 314 313 315 315 315 315 317 321 321 321
327 327 324 317 320 321 321 321 321 320 317 316 316 317 316 315 315 315 314 315 313 313 313 313 316 320 320 319 320 321 322 322
326 327 324 317 319 320 318 318 318 319 317 316 317 316 315 315 314 314 314 317 315 314 314 313 316 320 322 322 322 322 322 322
326 327 325 320 318 318 317 316 317 316 317 315 314 314 314 313 314 315 316 316 315 313 313 315 318 320 321 321 322 322 322 322
326 327 327 323 318 318 317 317 316 315 315 314 314 313 314 315 317 317 316 315 313 314 316 316 318 319 322 322 322 323 322 321
326 327 327 326 321 319 317 316 317 317 316 316 317 318 319 320 319 317 313 313 315 318 319 319 320 320 321 322 322 320 320 321
327 327 327 327 325 323 320 318 318 317 317 318 318 318 318 319 319 317 316 319 320 321 321 321 320 321 321 322 322 322 322 321
326 327 327 327 326 325 324 322 321 320 319 319 320 320 320 319 318 318 320 322 323 324 323 321 321 320 320 321 320 323 321 322
325 326 327 326 326 325 326 325 324 322 321 321 321 321 321 321 322 322 323 323 323 322 320 320 319 319 320 317 321 322 321 321
325 326 326 326 326 326 326 325 325 324 323 324 324 323 323 323 323 323 323 323 323 320 318 320 321 319 323 321 321 322 321 318
324 325 325 325 325 326 326 326 325 325 325 324 325 325 324 325 325 325 324 323 322 320 321 323 321 320 320 320 322 321 319 317
323 324 323 323 323 324 325 326 326 326 326 325 325 325 325 325 326 327 327 326 323 321 324 320 321 322 322 322 320 319 317 313
321 324 322 322 321 321 323 325 327 328 328 327 327 327 328 325 324 324 328 325 326 325 322 322 322 320 319 319 318 314 311 309
320 321 321 322 322 321 322 325 327 328 328 329 328 328 324 322 323 324 323 322 323 322 322 320 319 318 317 315 313 310 308 307
319 321 322 322 323 324 324 326 328 329 329 329 328 327 324 324 325 324 323 322 321 320 319 318 317 314 312 310 308 307 305 303

GFSFLT1_850_thetae_078.txt.gz
Theta_e
327 325 323 323 323 323 323 323 322 320 320 319 319 321 322 318 317 314 315 315 316 316 317 317 317 318 318 319 319 318 318 317
326 325 323 322 323 321 322 323 322 320 320 320 319 318 319 318 316 315 318 316 315 316 316 316 316 317 318 319 319 319 319 318
327 326 325 322 322 321 322 322 322 321 320 320 322 320 318 317 316 316 320 315 315 315 315 315 316 317 317 318 319 319 319 318
328 326 326 322 322 322 322 322 322 321 320 319 319 320 320 317 318 319 318 317 317 316 315 317 318 318 317 317 316 318 319 319
328 327 327 321 321 321 321 322 322 322 320 317 318 319 320 319 318 315 314 316 316 316 316 318 319 319 316 315 315 315 318 320
327 327 327 321 319 321 321 322 322 322 322 320 318 320 319 317 317 316 315 317 316 316 315 316 316 317 316 317 317 316 316 318
325 326 327 322 318 321 321 321 321 321 321 321 318 317 318 318 315 317 317 317 315 314 314 315 315 316 316 316 320 321 320 320
323 325 327 324 318 318 320 321 321 321 320 320 317 316 316 317 316 316 315 315 314 315 316 315 314 314 315 315 319 321 322 322
323 324 326 326 323 317 316 316 319 319 320 320 317 316 317 318 317 315 314 314 314 313 315 316 316 314 313 314 317 320 321 321
323 324 325 326 325 321 316 315 316 317 317 320 319 315 316 317 316 315 314 314 314 316 318 316 315 317 319 318 319 320 320 321
323 324 325 326 326 324 319 316 315 316 317 317 318 316 316 315 315 314 313 313 314 317 317 314 316 319 320 321 321 321 321 321
323 324 325 326 326 326 324 320 317 316 316 316 316 316 315 315 315 315 316 317 317 315 314 317 320 323 323 322 321 320 319 321
323 324 325 326 326 326 326 323 320 317 316 316 315 315 316 316 315 315 316 315 314 316 319 320 321 321 321 323 321 321 319 319
323 324 324 325 326 326 326 325 323 320 318 318 318 317 320 321 320 319 319 319 319 319 321 321 322 322 320 319 320 319 318 319
323 323 324 324 325 325 325 325 324 324 323 320 320 321 322 321 322 321 321 321 321 322 322 323 322 322 320 319 321 321 319 321
323 323 322 322 322 323 323 324 325 324 323 323 323 323 323 324 323 323 323 323 323 324 324 322 321 322 320 321 321 319 319 320
322 322 322 322 320 320 321 322 323 324 324 324 324 323 323 324 323 323 323 323 324 324 325 325 323 322 322 321 320 319 317 315
320 321 321 321 321 321 321 322 323 324 325 325 325 324 324 324 323 323 325 326 324 322 323 323 324 323 321 320 319 317 314 312
320 319 320 321 322 322 321 322 323 324 325 326 326 326 325 325 325 325 322 323 322 321 321 321 321 320 318 317 316 313 311 308

GFSFLT1_850_thetae_084.txt.gz
Theta_e
328 325 325 324 323 323 324 324 322 322 323 323 322 319 316 313 313 311 309 308 308 314 316 317 317 318 312 311 311 311 310 311
329 325 323 323 322 323 324 323 322 321 322 322 321 318 314 314 313 311 312 316 309 314 317 317 317 317 316 317 318 316 312 311
329 326 323 324 322 322 323 323 323 321 321 322 321 320 315 315 314 314 315 311 310 316 316 317 317 318 319 319 318 318 317 315
329 327 325 324 323 322 322 323 322 322 321 321 322 320 316 315 314 314 315 315 311 316 316 317 317 319 319 318 318 319 318 316
330 328 326 325 323 321 321 323 322 322 321 321 321 321 316 318 316 314 316 316 316 316 316 317 316 317 318 317 317 318 319 319
330 329 327 326 324 321 322 322 322 322 321 321 321 320 317 318 319 316 316 316 317 316 316 316 316 316 316 316 316 317 318 320
330 329 327 327 324 322 321 322 321 322 322 321 321 321 319 319 320 317 315 315 317 318 318 315 315 315 315 315 317 318 319 320
329 330 328 326 323 321 322 322 322 322 322 321 321 320 320 318 319 316 315 316 317 320 318 316 315 316 315 316 318 318 318 319
328 329 329 326 324 322 320 321 325 323 322 322 321 320 322 320 319 316 316 317 317 320 319 317 317 317 317 318 317 317 318 317
327 329 329 327 325 324 318 320 322 322 322 322 322 321 321 321 319 318 317 319 319 320 319 317 316 317 317 315 316 317 318 319
327 328 329 328 326 324 320 319 321 323 321 321 321 321 321 322 322 320 319 320 320 321 320 317 318 317 316 315 315 316 320 320
326 327 328 328 327 325 323 319 323 323 323 323 322 322 321 321 321 321 320 320 321 321 319 318 317 316 316 316 317 316 319 320
326 327 327 327 328 326 324 323 322 323 323 323 322 322 321 321 321 321 319 318 319 318 317 317 317 317 316 318 320 319 318 319
326 327 327 327 327 327 326 324 322 322 322 321 321 320 320 320 320 320 319 318 317 320 320 319 316 316 316 316 315 315 317 319
325 327 327 327 327 327 326 325 324 323 321 320 317 316 317 319 320 321 320 320 320 320 320 319 317 317 315 315 315 317 320 320
322 326 327 327 327 327 326 326 324 324 322 321 320 317 316 315 316 317 319 318 319 320 320 320 320 319 320 321 320 321 322 322
320 321 325 327 327 327 326 325 325 325 324 323 322 321 319 320 317 318 319 319 319 320 319 318 320 322 323 323 323 323 322 322
319 319 321 325 324 321 324 324 324 324 325 324 324 323 322 320 320 320 321 321 319 319 320 321 322 323 323 322 322 322 321 320
319 317 319 320 324 322 323 323 322 323 323 323 323 323 323 322 321 321 321 320 320 319 321 323 322 323 322 322 321 319 318 316

GFSFLT1_850_thetae_087.txt.gz
Theta_e
329 330 328 328 327 327 324 325 324 322 323 323 322 321 321 320 319 317 315 312 312 314 316 315 314 313 314 311 313 316 315 315
329 330 328 328 327 327 324 324 324 322 323 322 320 318 315 314 315 314 312 313 315 315 315 313 315 313 311 310 314 314 313 314
330 330 328 328 327 326 324 324 323 321 323 321 318 316 314 313 313 312 313 312 314 311 315 316 316 313 313 313 316 315 314 313
330 331 328 327 327 326 324 323 322 323 322 322 320 316 314 314 314 313 312 312 313 314 317 315 315 317 317 318 318 318 318 317
330 331 329 328 328 326 322 323 323 322 322 322 320 317 315 314 314 309 312 312 313 315 316 317 315 318 319 319 320 321 320 320
330 332 330 330 329 325 323 323 323 322 322 322 321 317 314 313 313 311 314 313 312 309 314 317 318 319 319 320 321 319 321 321
329 331 331 330 329 326 323 323 323 322 322 321 321 321 316 315 314 314 315 315 314 313 313 316 318 319 321 321 318 318 318 320
328 332 331 330 329 326 323 322 323 323 323 321 321 321 319 316 315 315 315 314 316 316 317 319 320 320 321 318 316 320 318 318
327 331 331 330 329 325 324 323 322 322 323 322 321 321 320 318 321 317 315 315 316 317 318 319 320 320 320 319 319 321 321 320
327 329 332 331 330 327 324 325 322 323 322 322 322 321 321 319 318 319 317 316 316 317 319 319 321 321 320 318 320 319 320 320
326 328 331 331 329 328 326 323 323 322 323 322 322 322 322 321 320 318 318 317 316 317 317 320 320 321 321 321 321 320 321 319
325 328 330 331 330 329 326 325 324 325 323 323 323 322 322 322 322 321 320 318 317 318 319 319 321 322 321 321 320 320 321 320
325 328 329 331 330 329 327 325 324 325 325 323 323 323 322 323 323 322 321 320 319 320 320 321 322 322 321 321 321 321 320 321
327 328 329 330 330 330 328 326 325 325 326 325 324 323 324 323 323 322 323 322 321 321 321 321 321 321 321 321 320 321 320 321
326 328 328 329 330 330 329 328 327 325 325 325 325 325 324 324 324 323 323 323 322 322 321 322 322 321 321 321 321 321 320 320
323 326 328 328 329 330 330 329 328 327 326 325 325 324 325 325 325 324 324 323 323 323 323 322 322 322 321 321 321 320 320 320
322 322 326 328 328 329 330 329 328 328 326 326 325 325 325 325 324 324 324 323 323 322 322 322 322 322 321 320 321 321 323 323
321 321 321 324 328 329 329 329 329 328 327 327 326 325 325 324 324 324 324 323 322 321 321 321 322 322 323 322 323 323 322 322
321 320 320 321 322 328 329 329 328 328 327 327 326 326 325 324 324 323 322 322 321 321 321 321 321 322 322 322 323 322 322 321

GFSFLT1_850_thetae_090.txt.gz
Theta_e
330 330 331 330 329 329 325 326 324 324 324 324 324 325 325 326 326 327 325 326 323 322 319 318 322 321 321 320 316 316 315 315
330 330 330 329 329 328 325 325 323 324 323 323 323 323 323 323 323 323 322 323 321 316 319 319 318 322 317 316 316 316 314 314
330 331 330 329 329 327 323 323 323 323 323 323 322 321 320 320 318 318 320 318 315 315 319 318 318 314 312 315 315 314 314 315
330 331 331 330 329 327 324 323 323 322 322 321 321 319 319 320 320 320 320 317 315 314 314 314 313 314 315 312 314 315 313 314
329 331 331 329 329 326 324 323 322 322 322 321 320 318 316 315 316 316 314 313 314 315 313 313 312 316 315 311 314 314 316 316
330 331 332 330 329 326 324 325 322 323 322 320 317 315 315 315 314 313 313 313 315 315 316 315 315 316 314 316 318 319 319 319
329 331 332 331 329 327 324 322 322 322 322 321 318 317 317 315 312 313 313 312 313 314 317 317 315 315 317 318 319 319 320 321
327 333 332 331 331 328 324 323 323 322 321 321 321 320 318 317 313 311 310 312 312 313 314 315 318 317 319 320 319 319 320 318
327 332 332 331 331 328 325 324 324 322 321 321 320 321 319 317 314 312 311 312 311 312 313 315 315 319 319 319 320 319 319 315
326 331 332 331 331 329 326 324 322 322 320 321 321 321 321 318 314 313 311 312 312 312 314 313 318 318 318 318 318 317 316 314
325 328 333 331 331 329 326 323 322 323 323 321 321 321 321 321 318 313 313 312 313 314 315 315 317 318 319 318 318 316 316 316
325 327 333 332 331 330 327 324 323 324 322 322 322 321 322 321 320 318 316 314 315 315 316 317 319 319 319 320 320 318 317 318
325 327 333 332 331 330 328 325 323 322 324 322 322 321 322 322 321 320 320 320 316 316 316 317 318 320 319 319 320 319 319 318
326 327 331 333 332 330 329 327 324 325 323 323 324 323 323 323 323 322 321 320 318 316 316 316 316 319 320 318 319 320 321 319
327 327 329 332 332 331 330 328 326 325 326 325 322 323 323 322 323 323 323 323 321 320 319 318 318 319 320 320 320 321 321 320
324 327 328 330 332 331 331 329 327 326 326 327 326 323 323 322 322 323 324 325 323 322 322 321 321 321 321 322 322 322 321 321
322 322 326 328 330 331 331 330 329 326 326 327 327 327 326 325 324 324 323 323 324 323 323 323 322 322 323 322 321 322 322 321
321 321 322 324 328 329 331 331 330 329 327 327 327 326 327 326 326 326 325 324 323 323 323 323 323 322 322 322 323 322 322 321
322 322 322 321 322 328 329 330 331 330 329 327 327 327 327 326 326 326 326 325 324 324 323 323 324 324 323 323 322 322 321 322

GFSFLT1_850_thetae_093.txt.gz
Theta_e
327 329 331 331 330 329 329 328 323 325 326 323 324 324 325 326 326 327 327 327 327 325 324 320 313 320 321 320 318 317 317 317
328 329 331 331 330 329 329 327 325 323 322 322 323 323 322 323 323 324 325 326 327 325 324 318 315 320 321 319 317 316 317 316
329 330 331 331 330 329 328 326 323 322 322 323 321 322 323 324 324 325 325 326 326 324 320 318 319 320 321 318 316 316 315 314
330 330 331 330 329 329 328 325 322 322 322 323 322 322 322 322 321 322 322 323 325 321 319 321 321 318 321 316 316 314 315 314
330 330 330 330 330 329 328 324 323 321 321 322 322 322 320 319 320 319 319 321 321 321 320 318 316 321 318 315 315 314 313 315
330 330 330 330 330 329 328 323 321 321 320 321 321 321 320 319 320 320 320 320 318 317 317 317 316 315 313 314 315 315 315 315
329 330 330 330 330 329 327 323 321 321 321 322 321 321 321 320 319 320 319 319 318 317 317 316 314 313 314 315 312 312 314 314
330 331 331 331 330 328 326 323 321 321 321 322 321 319 318 318 318 317 316 315 315 315 315 314 314 314 315 316 313 314 316 318
330 330 331 331 330 329 327 324 321 321 321 321 320 317 316 317 317 315 313 314 315 314 314 314 313 314 315 315 317 318 319 319
331 331 331 331 331 330 328 326 321 321 321 321 319 318 317 317 316 314 312 312 313 314 313 317 317 315 315 316 317 319 319 319
331 331 332 332 331 330 330 328 319 321 320 320 321 320 319 319 317 313 312 312 311 313 313 315 315 316 318 318 319 319 319 318
329 331 332 332 331 331 330 328 321 323 322 320 320 320 320 320 319 318 314 311 310 313 313 313 312 313 316 317 319 318 318 318
326 332 332 331 331 331 330 329 325 320 321 321 320 321 320 319 319 319 319 315 312 311 312 312 312 315 315 317 319 318 318 317
326 332 332 332 331 331 330 330 327 321 321 322 321 320 320 321 320 320 320 318 315 314 312 314 313 314 314 316 318 318 319 318
328 332 332 332 331 331 330 330 328 324 321 323 322 322 322 320 321 321 321 321 320 317 315 314 314 315 316 318 320 319 319 318
323 329 332 332 331 331 331 330 329 327 322 322 321 323 323 322 322 322 322 321 321 320 320 318 315 315 315 318 318 319 318 319
322 324 329 332 332 331 331 331 330 329 326 324 324 322 322 325 323 322 323 323 322 322 322 321 319 317 316 317 316 316 317 319
322 322 322 323 330 331 331 331 330 330 328 326 325 326 325 323 322 323 323 323 324 324 323 322 322 321 321 320 319 319 320 321
322 322 321 321 321 323 329 331 331 330 329 328 325 326 327 326 325 323 322 322 322 324 323 323 322 322 323 322 322 323 323 323

GFSFLT1_850_thetae_096.txt.gz
Theta_e
319 319 324 326 329 330 330 330 328 326 319 323 326 325 326 327 328 328 328 328 327 325 320 324 310 306 307 307 318 318 318 318
319 323 327 329 330 330 330 329 328 326 320 325 323 324 326 327 328 327 328 328 327 327 322 322 307 308 311 309 317 315 315 318
326 329 329 329 329 330 329 329 328 326 320 322 322 323 324 324 326 326 327 328 327 327 323 322 310 316 314 316 312 316 317 318
329 330 329 329 330 329 329 328 327 324 319 322 322 324 322 322 322 322 324 327 327 327 325 323 316 320 317 318 318 317 317 317
326 330 330 329 330 329 329 328 327 323 319 322 321 321 322 321 321 322 324 324 326 326 326 322 318 319 318 318 316 316 315 313
325 330 329 330 329 329 329 328 327 320 319 322 321 320 321 321 321 320 323 324 325 326 325 321 317 319 319 317 316 316 313 313
324 328 330 330 329 329 328 327 326 319 320 323 320 319 320 320 319 319 319 320 319 320 323 317 319 315 318 317 316 314 314 314
326 328 329 329 329 329 328 327 324 319 321 322 320 320 320 320 319 319 319 319 320 320 321 320 318 317 315 316 316 314 315 315
327 328 329 329 329 329 328 326 322 318 320 321 320 320 320 320 319 320 321 321 321 321 320 320 319 315 317 315 315 316 315 313
328 328 329 329 329 329 329 326 322 318 320 321 321 321 320 321 320 320 320 320 320 320 318 317 316 316 316 314 314 316 314 314
329 329 329 329 329 330 328 326 323 319 319 321 320 320 319 320 318 318 317 317 317 317 317 317 316 316 316 315 315 316 315 315
329 329 329 329 330 330 329 327 326 322 318 321 321 320 319 317 317 317 316 315 315 315 315 315 315 314 314 313 314 315 315 317
330 329 329 329 330 330 329 328 327 325 318 319 320 320 319 318 318 318 317 315 313 315 314 314 315 317 315 314 315 315 316 317
322 330 330 330 330 330 329 329 327 326 320 318 320 320 320 319 319 319 318 317 313 312 312 313 313 316 316 316 316 317 317 318
325 330 330 330 330 330 330 330 329 327 324 318 321 320 320 319 320 320 319 319 318 315 313 311 313 313 313 313 312 313 316 317
320 330 330 330 330 330 330 330 330 328 326 321 318 322 320 320 320 319 319 319 319 319 317 314 311 312 313 312 312 313 314 314
322 329 330 330 330 330 330 330 330 329 328 325 321 318 323 321 320 320 319 320 320 320 320 319 316 314 313 312 313 314 315 317
321 320 323 328 329 329 329 329 328 328 328 327 325 320 319 320 321 320 320 319 320 321 321 321 320 319 319 318 315 314 314 315
318 319 320 320 322 326 328 329 328 329 328 327 326 325 322 321 320 321 321 321 320 320 321 322 322 322 321 321 320 318 316 315

GFSFLT1_850_thetae_102.txt.gz
Theta_e
317 318 319 319 318 318 325 328 327 329 330 329 326 324 324 323 325 325 328 328 328 328 327 326 326 326 324 320 323 321 320 320
317 317 318 319 317 317 321 327 328 329 330 329 326 324 325 324 324 324 327 328 327 327 326 326 324 323 319 316 322 320 319 320
316 316 317 318 318 318 320 325 328 329 330 329 327 324 325 323 324 324 325 326 325 325 326 324 324 319 316 319 320 321 319 320
319 318 317 318 319 318 318 324 328 329 330 328 326 322 321 321 323 323 324 324 324 326 326 325 323 322 315 314 320 321 319 320
320 319 317 318 320 320 318 326 328 330 329 328 326 322 319 319 321 323 324 324 325 327 325 325 324 320 314 310 315 321 319 319
320 318 318 318 321 321 321 326 330 330 329 328 326 321 318 320 321 323 323 326 324 326 324 325 324 320 313 310 315 319 318 319
319 320 317 318 321 322 324 328 330 329 328 327 325 320 318 320 321 321 321 322 324 323 325 326 323 320 310 312 314 317 318 319
318 319 320 319 321 322 326 329 329 328 327 326 324 319 319 321 320 320 320 321 322 322 323 324 325 322 319 310 311 316 318 319
318 318 321 320 322 323 326 328 329 328 327 326 322 318 320 320 320 319 319 319 320 321 322 323 323 321 320 311 308 316 315 317
317 319 324 321 321 323 324 327 328 328 327 326 320 318 320 319 319 319 319 320 319 319 321 322 322 321 316 313 310 311 313 315
317 318 322 324 324 324 324 326 328 328 327 325 319 318 320 320 320 320 320 319 319 319 320 320 321 318 317 313 312 312 313 312
316 320 321 325 324 323 323 324 327 328 327 325 317 320 320 320 320 320 320 319 319 319 319 319 318 316 316 314 316 315 313 314
318 320 322 326 325 324 325 324 326 327 327 324 316 320 320 320 320 320 320 321 320 319 319 318 317 317 316 317 315 315 314 314
319 322 323 326 326 325 324 324 324 325 326 323 317 319 320 321 320 320 320 320 320 320 320 318 317 317 318 317 315 314 315 315
318 318 325 326 325 324 325 325 324 325 324 322 318 318 320 320 320 320 320 319 318 318 317 317 319 317 318 316 315 316 315 315
313 316 318 323 324 325 323 325 325 325 325 323 321 318 318 320 320 319 319 319 317 318 318 316 315 317 317 317 317 316 316 316
310 310 316 319 320 323 325 326 326 324 325 323 324 321 319 319 319 319 319 318 317 317 317 317 316 314 315 316 316 316 316 316
307 306 311 314 318 322 322 324 325 325 324 323 323 323 321 319 319 319 319 318 318 318 318 317 317 316 315 314 314 314 314 314
305 305 307 309 314 320 322 323 324 325 325 324 324 324 323 322 320 319 318 317 318 318 318 318 317 317 316 315 315 313 313 312

GFSFLT1_850_thetae_105.txt.gz
Theta_e
317 316 316 316 317 318 318 317 321 329 327 329 330 330 328 326 324 324 325 326 328 329 328 327 327 325 324 320 320 318 318 323
316 317 316 316 316 317 319 318 319 328 328 329 330 330 328 326 324 322 326 328 327 328 327 327 327 326 324 320 321 319 321 320
317 320 321 318 317 317 318 318 318 325 329 329 330 329 328 327 325 323 326 326 326 327 327 326 326 326 324 320 318 320 321 320
320 320 320 320 318 317 318 319 319 324 329 330 330 329 327 326 327 325 322 323 325 326 326 325 326 326 322 321 319 321 319 319
320 320 320 320 318 317 318 320 319 324 329 329 330 329 328 326 323 325 322 323 324 324 324 324 324 321 320 320 320 321 317 318
318 319 319 321 319 317 317 320 321 322 328 329 330 328 328 324 321 321 320 322 325 325 325 324 324 321 321 320 319 319 317 316
319 318 319 321 320 319 319 321 323 323 327 329 329 328 327 324 319 319 321 322 323 322 323 324 324 323 321 319 319 318 317 316
318 318 319 321 321 322 320 322 326 325 327 329 329 328 326 322 318 318 321 322 323 324 324 324 324 323 323 318 317 316 316 317
318 318 318 319 321 323 321 322 326 325 327 330 328 327 325 321 319 321 321 320 320 322 323 324 323 324 324 318 315 314 314 317
317 318 317 318 320 322 322 323 325 325 328 329 328 327 324 318 320 320 319 319 320 321 322 322 323 322 321 318 312 310 314 313
316 318 318 318 320 322 322 323 325 325 328 328 327 327 322 318 320 320 319 319 318 319 320 321 323 322 322 320 313 311 314 312
317 318 318 320 319 322 323 323 324 325 326 327 326 326 318 320 320 320 320 320 319 319 320 321 321 322 320 320 319 313 310 310
315 316 316 320 321 323 323 322 322 323 325 326 326 323 317 320 320 320 320 320 319 319 319 318 319 320 320 319 318 316 311 313
314 314 313 316 323 323 323 322 321 321 324 326 326 320 318 320 320 320 320 320 319 320 319 319 318 318 318 317 316 314 311 313
314 313 311 310 323 321 322 321 321 321 324 325 325 318 318 320 320 320 320 320 319 319 319 318 318 318 317 316 315 314 313 311
312 312 309 305 317 321 322 321 321 321 323 324 324 318 318 319 320 320 320 320 319 319 319 319 318 318 316 316 316 315 315 314
307 305 303 303 311 320 321 321 320 321 322 322 322 321 318 319 319 320 319 319 319 318 317 317 316 316 317 317 317 316 315 315
303 307 304 304 307 314 321 321 322 322 323 324 324 323 323 319 319 319 319 319 318 318 317 317 317 317 316 316 317 317 316 315
301 303 307 307 308 312 319 321 322 322 322 323 324 323 322 322 321 319 319 319 318 318 317 317 317 317 317 316 315 314 315 315

GFSFLT1_850_thetae_108.txt.gz
Theta_e
319 319 319 318 319 320 322 326 321 324 333 331 327 325 328 329 329 328 325 323 325 327 327 329 329 327 326 325 325 324 324 321
317 318 320 320 318 317 317 318 320 326 328 328 328 326 329 329 329 328 325 323 324 326 328 328 328 327 327 324 322 321 321 322
317 320 322 322 321 323 319 319 323 327 325 325 328 327 329 330 330 328 325 322 322 326 327 327 327 326 326 323 323 322 320 315
320 322 322 323 323 323 323 325 327 329 329 327 330 328 329 330 330 328 327 324 324 327 326 327 327 325 326 324 323 322 318 315
321 322 322 323 324 323 323 326 328 329 329 328 330 329 329 330 329 328 328 325 324 325 326 326 325 325 325 325 324 320 317 318
322 322 322 322 323 326 324 326 328 327 329 329 331 330 330 329 328 327 325 328 324 324 324 324 324 324 324 324 320 319 318 320
321 321 321 321 322 324 327 327 327 323 325 331 329 331 331 328 327 326 322 328 325 322 324 324 323 323 324 322 320 319 319 320
319 320 320 321 321 323 326 327 326 323 326 331 329 331 329 328 327 325 321 324 321 322 323 324 324 324 324 322 320 320 318 320
319 318 319 320 321 322 324 327 325 325 324 329 329 326 329 327 326 324 319 320 321 323 324 323 323 323 323 321 320 319 319 319
319 319 320 321 320 322 324 326 325 324 322 327 327 328 327 326 325 321 320 322 321 322 324 323 324 324 323 322 320 320 320 318
319 319 318 318 318 320 323 325 324 323 324 326 326 328 325 325 323 318 320 320 320 320 321 322 322 323 323 322 320 319 319 319
318 317 316 314 317 322 324 324 323 323 323 326 327 326 324 323 320 320 320 320 319 320 321 322 322 322 322 322 321 318 318 317
317 315 313 312 316 322 323 322 322 324 322 324 325 325 323 322 319 320 321 320 320 319 319 319 320 321 322 321 320 317 317 316
316 314 312 310 315 320 323 322 321 322 323 322 325 326 324 320 320 321 321 320 320 319 319 320 320 320 321 319 319 318 317 313
312 311 310 309 313 313 317 322 322 322 322 322 324 324 323 319 320 321 321 320 320 320 319 319 319 318 318 318 318 317 316 314
308 306 306 307 311 311 318 321 321 322 321 321 323 323 320 320 320 320 320 320 320 319 319 319 318 318 318 317 317 317 316 315
305 303 305 304 309 307 314 320 320 320 320 321 323 323 319 319 319 320 320 320 320 319 318 319 319 317 318 317 317 317 316 315
302 299 302 303 307 304 308 320 320 320 321 322 321 320 318 319 319 320 320 320 319 319 319 319 318 317 317 317 317 317 316 315
298 298 300 303 305 303 303 320 320 320 320 320 321 322 322 320 318 319 319 319 320 320 318 319 317 316 316 316 316 317 317 316

GFSFLT1_850_thetae_111.txt.gz
Theta_e
322 322 322 322 322 323 325 328 333 337 338 340 339 337 335 332 330 327 328 328 326 325 329 329 328 328 329 329 328 326 326 326
322 322 321 321 322 322 322 323 326 333 335 337 338 336 333 329 334 334 332 329 327 323 331 328 327 327 328 328 326 326 325 324
321 320 320 322 324 324 325 325 325 328 333 334 337 335 335 333 329 333 332 331 328 324 328 328 327 328 328 327 324 326 324 324
319 318 322 323 324 324 325 326 326 328 332 334 335 333 334 334 328 329 330 330 328 329 328 327 328 328 326 326 326 325 322 323
318 321 322 323 324 325 327 327 327 329 332 334 331 332 331 332 331 330 331 330 328 327 326 326 328 328 327 325 326 324 322 322
321 322 322 322 322 324 327 329 328 329 331 333 332 331 331 332 331 330 330 330 327 329 326 325 330 327 326 324 324 323 321 321
321 321 321 320 322 323 325 328 329 329 330 332 332 330 332 333 333 332 332 329 328 327 326 326 326 326 325 325 325 323 322 320
320 320 320 320 321 322 323 324 328 329 330 330 331 330 331 333 333 333 330 328 326 325 327 327 323 324 325 324 324 323 322 319
319 319 320 321 321 322 322 324 325 328 329 327 330 330 331 333 332 330 328 326 324 322 326 326 324 324 324 324 324 323 321 318
320 320 320 320 320 319 321 321 324 326 328 326 327 328 331 332 331 331 328 325 324 323 327 322 323 325 323 322 323 322 320 319
320 320 319 318 317 317 318 320 324 325 327 325 324 328 329 330 330 329 327 323 322 325 323 323 324 324 324 323 323 321 320 319
319 318 317 316 315 314 315 319 324 326 326 324 323 326 328 329 328 327 325 320 324 323 322 322 323 323 323 323 322 321 319 319
319 318 317 315 313 311 312 322 325 325 324 323 321 325 327 327 327 324 320 321 323 322 323 322 321 322 322 322 321 321 320 319
316 314 314 313 312 309 313 318 323 323 323 322 323 324 326 326 326 321 320 324 322 320 321 323 321 321 322 322 322 321 321 320
312 311 310 310 309 307 311 315 322 323 322 322 322 324 325 325 324 320 320 325 323 321 320 322 320 320 321 320 321 320 319 318
308 307 306 306 306 307 309 313 321 322 321 321 322 323 323 325 324 322 321 324 321 320 320 321 320 319 319 319 318 319 317 316
304 304 302 302 301 306 305 311 317 320 321 321 321 321 322 322 322 322 323 323 320 320 320 320 319 319 318 318 317 317 317 316
300 299 298 297 302 304 302 310 315 319 320 320 320 320 321 321 322 320 322 323 321 320 321 320 319 319 318 318 317 317 317 317
296 296 298 299 301 301 301 308 314 318 319 319 319 320 320 321 320 319 321 323 320 320 320 319 318 318 317 317 316 317 316 317

GFSFLT1_850_thetae_114.txt.gz
Theta_e
322 321 321 322 322 322 326 328 333 335 334 337 341 342 341 336 337 337 334 330 329 330 329 330 329 331 330 331 330 329 328 328
323 323 323 323 323 323 323 325 330 334 337 337 338 342 341 338 336 336 335 329 329 328 328 326 329 329 327 328 329 328 328 326
323 323 323 322 322 323 323 323 323 327 334 333 335 339 341 339 336 334 334 333 330 329 328 325 325 329 326 327 327 328 326 325
322 322 321 322 324 324 325 325 326 326 326 332 335 337 340 339 335 332 336 335 333 330 328 326 325 330 331 326 328 327 326 325
320 320 321 323 324 324 325 327 327 327 327 328 333 334 335 334 334 332 334 336 335 332 330 328 327 325 328 326 328 326 325 325
318 321 323 323 323 324 325 326 328 328 328 329 332 333 333 332 330 330 331 331 333 335 333 330 328 323 325 325 328 325 324 326
321 322 322 322 321 323 323 324 325 328 329 329 331 333 334 331 330 330 330 330 332 334 332 330 327 322 326 326 325 325 324 324
320 321 320 321 321 322 323 323 323 325 328 329 331 333 334 333 330 332 331 330 331 333 330 329 327 324 326 328 324 324 324 324
320 321 321 321 321 321 321 321 322 323 325 328 329 331 332 331 332 334 332 331 330 332 330 328 325 325 327 326 324 324 324 324
320 320 320 319 318 318 317 316 317 320 320 325 329 329 327 328 330 334 332 331 329 331 328 326 324 325 323 323 324 325 323 323
320 320 318 317 317 316 315 314 314 317 319 323 327 329 327 327 330 333 332 330 328 327 324 322 324 327 323 324 323 323 323 322
320 319 318 317 316 315 313 312 313 318 323 325 327 327 326 326 330 332 331 329 327 326 323 322 326 322 323 324 322 323 322 321
317 316 314 313 313 313 311 311 311 318 323 328 328 327 324 325 330 331 330 328 325 325 323 323 324 323 324 324 324 322 322 321
312 312 311 310 309 309 308 310 311 316 323 325 325 324 323 325 330 329 328 326 323 323 324 323 323 324 322 322 322 322 321 321
309 308 307 306 305 305 304 308 309 315 320 323 323 323 322 324 328 328 326 325 324 324 324 323 321 320 321 320 321 321 321 320
306 305 303 302 301 301 304 306 307 313 318 322 322 322 322 324 327 326 325 322 322 323 322 321 320 320 320 320 320 320 321 320
302 301 299 298 300 301 300 302 306 311 317 321 322 322 322 324 325 324 324 322 321 323 321 319 319 319 319 319 319 319 317 318
299 297 295 297 299 300 299 299 303 308 316 321 321 321 322 323 324 323 322 321 321 321 321 320 321 319 318 318 317 317 316 317
295 295 295 296 298 299 299 299 301 305 316 318 320 321 322 323 322 320 320 320 320 320 320 321 321 321 318 317 317 317 318 317

GFSFLT1_850_thetae_120.txt.gz
Theta_e
321 321 320 320 321 320 321 323 331 334 336 336 336 335 334 331 330 333 336 336 335 333 332 334 336 334 333 332 332 331 331 331
321 321 321 320 320 321 321 321 327 334 337 337 338 338 337 335 333 332 335 336 337 335 332 333 336 336 334 333 332 332 329 329
321 321 321 321 321 321 321 321 325 331 334 337 338 338 338 336 335 332 336 337 337 337 335 333 333 334 335 334 332 330 329 328
320 320 321 321 321 321 321 322 323 330 334 337 338 337 334 336 338 336 334 337 338 337 336 335 334 334 333 332 331 329 328 327
320 322 320 320 323 324 325 334 339 338 339 338 337 334 331 330 330 333 329 332 336 337 337 336 334 333 332 332 331 328 327 325
320 322 323 324 326 326 327 330 332 332 332 332 333 338 337 332 329 329 329 336 336 334 334 333 332 331 332 331 330 329 325 325
322 323 324 324 324 325 325 325 325 324 325 326 327 329 332 337 337 335 333 335 336 332 333 333 330 331 330 330 331 328 325 324
322 322 322 323 323 322 323 322 322 322 323 324 325 326 327 329 332 334 334 335 335 334 335 331 331 330 331 330 329 328 325 323
319 319 320 318 318 319 320 320 320 318 316 316 317 320 322 325 327 330 332 331 331 331 331 329 328 331 330 329 328 328 325 323
314 316 316 317 318 318 317 316 314 313 313 313 313 313 314 315 320 326 330 332 329 329 328 328 327 328 330 329 328 327 324 322
311 311 313 314 315 315 315 315 315 314 313 313 313 314 314 315 316 318 327 330 330 328 328 330 329 328 328 330 329 326 323 321
307 308 309 309 310 312 312 312 312 312 312 312 312 313 314 316 318 318 322 328 330 328 327 329 331 329 329 330 328 326 322 321
305 306 308 308 309 309 310 311 311 311 312 312 313 314 314 317 324 323 321 326 329 328 326 328 332 329 328 327 326 325 321 322
304 306 309 309 308 309 308 308 308 309 310 311 312 312 314 319 324 326 325 325 327 326 326 329 330 329 327 326 324 323 321 321
299 302 303 304 305 306 306 307 306 306 307 308 309 311 314 318 323 325 326 326 325 325 326 328 329 327 325 321 322 321 322 322
297 297 300 302 303 303 303 303 303 304 305 305 306 309 314 317 320 323 323 323 323 324 325 329 328 326 323 321 321 321 320 322
295 297 299 300 300 301 301 301 302 302 302 303 304 307 312 317 320 322 323 323 322 325 328 326 325 322 321 321 321 320 322 321
294 295 297 298 299 299 299 299 299 300 301 302 304 306 311 316 320 322 322 322 323 324 327 324 323 322 321 319 320 320 320 320
294 295 298 297 298 299 299 299 299 300 300 301 302 305 308 313 318 321 322 322 323 325 324 323 322 321 320 318 318 319 319 319

GFSFLT1_850_thetae_123.txt.gz
Theta_e
321 320 325 333 335 336 336 336 335 335 336 335 330 328 327 328 328 329 332 333 334 332 329 329 332 334 335 335 334 333 331 330
320 321 321 320 320 322 331 328 323 329 336 338 336 333 332 333 333 333 335 336 336 335 334 332 333 335 334 335 334 333 332 330
320 320 321 321 321 320 320 320 320 321 326 330 337 336 335 335 335 335 333 337 337 336 336 336 334 335 335 333 333 332 330 329
320 320 320 320 320 321 320 320 320 320 323 332 338 339 338 337 337 335 334 335 337 338 336 336 336 335 334 332 332 332 330 329
318 317 318 319 318 319 319 319 321 324 330 338 338 339 337 336 335 332 332 330 335 337 337 337 336 335 333 331 332 331 330 329
316 318 319 320 321 323 327 329 332 335 336 339 339 337 335 335 333 329 330 331 333 336 337 336 333 334 334 332 331 332 331 329
319 322 324 324 326 330 330 330 328 332 336 337 336 334 335 334 333 335 336 333 331 333 335 335 331 332 333 332 329 330 332 330
314 317 318 318 318 319 320 322 322 323 325 326 328 329 329 330 331 334 335 336 336 333 333 333 332 330 331 332 329 329 331 331
311 311 314 314 315 316 316 317 318 318 320 321 321 322 322 323 325 327 328 331 333 334 332 331 332 333 333 331 330 329 329 330
309 310 311 313 314 315 315 315 315 314 313 312 312 313 313 313 313 316 319 324 328 330 331 332 331 329 328 327 329 331 329 328
306 308 308 310 311 312 312 314 313 313 312 312 312 312 312 312 313 313 314 315 318 327 329 331 330 328 326 326 328 330 329 329
302 304 307 307 308 309 311 312 313 312 311 311 311 312 312 312 313 312 313 316 316 319 327 330 330 327 327 327 327 328 328 329
301 304 306 308 308 308 308 310 310 310 311 311 311 312 312 312 313 314 315 317 318 318 324 329 330 327 326 330 329 328 328 329
299 302 302 301 302 303 304 306 307 308 309 310 310 311 311 312 313 314 315 322 325 321 322 329 329 328 325 329 329 328 328 330
298 299 301 302 302 303 304 306 306 306 306 307 309 310 309 311 312 314 318 324 325 324 324 329 328 326 325 328 330 327 328 327
300 299 301 302 303 302 302 302 304 304 305 305 306 306 307 308 310 314 318 323 324 324 326 327 327 325 326 329 329 326 326 323
295 295 296 296 299 300 300 303 302 302 302 301 302 303 305 307 309 312 317 321 323 323 323 323 323 325 326 328 327 325 321 320
292 293 294 295 296 297 298 299 300 300 300 300 301 302 304 306 308 312 316 319 321 322 323 323 324 325 324 327 324 321 320 320
291 292 295 297 298 299 299 299 299 299 299 299 300 301 303 305 307 310 316 319 320 322 321 321 322 326 326 325 320 320 320 320

GFSFLT1_850_thetae_129.txt.gz
Theta_e
305 305 307 312 317 315 319 329 322 321 321 320 321 320 320 319 318 318 319 319 320 321 322 323 325 327 328 329 330 331 331 332
306 305 305 309 313 317 317 328 332 322 322 321 321 319 320 320 319 319 320 320 320 321 323 324 324 323 325 328 329 332 332 332
305 305 304 307 312 319 318 321 333 332 323 321 321 321 320 321 321 320 321 322 322 322 322 324 325 325 326 328 330 332 332 332
304 305 304 306 310 313 316 318 324 335 333 330 328 328 326 326 325 323 322 322 323 326 326 329 331 332 331 329 331 333 332 331
304 304 304 307 310 313 315 321 328 334 335 335 334 334 334 334 333 330 327 325 326 332 332 334 334 332 334 333 333 333 331 331
304 304 305 310 312 314 314 322 332 334 336 336 336 337 337 337 337 337 335 331 332 334 333 334 332 330 332 334 335 335 333 332
310 312 312 316 317 315 313 316 330 334 336 336 337 337 338 338 337 335 336 335 334 333 332 326 324 330 330 330 332 333 334 333
304 305 307 311 315 320 322 322 325 330 334 338 337 337 336 336 335 336 336 334 333 331 327 326 324 326 328 328 329 330 331 331
300 300 301 303 305 320 321 325 326 328 331 333 335 334 333 336 334 334 329 327 324 323 324 323 323 325 328 329 330 330 330 330
299 299 301 300 304 309 313 314 316 321 324 327 327 327 329 330 331 331 329 326 323 322 322 322 325 329 330 331 331 332 330 329
297 297 298 299 303 305 306 308 308 310 311 313 313 313 313 315 317 321 323 326 327 327 327 327 328 329 332 334 335 334 333 332
295 295 295 298 300 302 304 306 306 308 308 310 310 309 310 312 311 312 313 313 313 313 314 314 314 316 321 327 331 333 333 331
294 294 295 296 297 299 301 302 304 304 305 306 308 309 310 310 310 310 310 311 311 311 312 312 312 312 313 315 324 332 333 331
293 293 294 295 294 295 297 300 303 304 304 304 305 307 308 309 309 309 310 310 311 311 311 312 312 312 313 314 315 325 327 331
291 291 291 294 292 292 298 303 307 307 307 306 305 307 308 308 308 308 309 309 310 310 311 312 313 313 313 315 318 320 327 328
290 290 291 293 297 299 299 300 302 302 302 302 303 306 306 306 308 308 308 309 309 309 310 311 313 316 317 321 321 320 326 328
289 290 293 295 295 295 296 296 298 300 301 301 304 304 304 305 305 304 305 306 308 309 310 310 312 316 319 322 322 322 323 326
289 290 292 293 295 293 294 296 299 300 301 299 300 301 302 303 304 304 305 305 306 308 309 310 312 316 320 322 324 322 323 325
289 290 291 291 292 293 292 293 295 296 297 297 299 300 301 301 302 302 302 302 303 306 309 311 313 316 320 322 322 324 324 323

GFSFLT1_850_thetae_135.txt.gz
Theta_e
314 312 312 311 311 312 312 312 314 333 336 338 337 339 338 338 337 337 340 339 337 340 339 340 338 340 338 338 337 336 336 335
314 317 314 311 312 311 312 311 311 319 336 336 337 339 338 336 337 336 339 335 339 337 339 339 336 340 338 337 337 337 336 336
309 311 314 317 316 312 311 311 312 312 334 336 336 338 337 333 333 338 337 337 334 340 337 338 332 335 338 338 335 336 337 335
305 307 310 315 316 316 311 311 311 311 314 336 335 336 337 336 334 337 338 338 336 331 333 337 336 333 336 337 336 335 334 335
301 303 305 309 313 317 314 311 310 312 312 334 335 336 336 335 332 328 335 332 327 323 330 335 335 337 336 337 335 334 336 333
299 298 300 305 308 314 316 312 310 311 312 322 335 335 336 334 332 327 332 335 333 326 323 325 333 338 335 334 335 335 334 333
297 296 297 299 303 310 313 315 309 310 311 318 335 334 336 334 333 333 333 336 334 335 332 329 334 333 333 331 330 331 325 326
296 294 295 297 298 300 308 312 315 315 315 318 334 333 335 335 333 334 336 336 336 334 335 335 333 333 332 326 324 325 327 323
294 293 294 294 296 299 301 303 308 317 318 325 330 333 335 335 335 336 337 335 333 334 334 334 335 333 329 326 329 329 325 323
293 292 294 293 294 296 297 301 305 310 319 326 321 333 329 335 338 339 338 336 335 333 335 335 335 334 332 332 330 330 328 326
292 291 291 292 292 294 296 299 301 303 309 314 314 315 318 323 330 333 333 333 333 333 334 334 333 334 332 332 331 329 325 323
292 291 291 290 293 291 293 295 297 300 304 306 306 307 308 313 322 327 328 328 328 329 332 332 332 331 331 332 331 329 328 327
291 291 290 290 291 290 291 293 294 296 300 303 301 304 302 307 310 313 318 325 318 318 321 323 323 322 322 323 325 326 327 327
291 291 290 289 290 291 291 293 298 301 301 301 303 301 300 308 309 309 305 306 308 310 311 312 312 312 313 315 317 319 321 324
291 290 290 290 290 292 292 292 296 295 298 304 305 302 301 304 306 305 301 304 307 308 309 310 310 309 310 311 313 315 317 319
291 290 290 289 291 291 292 293 296 295 296 297 295 294 296 298 299 299 304 305 306 307 306 307 308 308 308 308 310 312 315 316
291 290 289 288 288 289 289 290 292 297 299 297 293 294 294 296 295 295 300 297 301 303 306 307 307 307 306 306 307 308 309 311
290 290 289 287 287 288 288 289 290 293 294 294 299 295 300 300 301 303 303 302 299 302 303 304 305 304 305 305 307 308 308 309
290 289 288 287 286 287 288 289 288 291 291 290 291 291 293 297 299 299 298 297 297 297 300 301 303 304 304 305 306 308 311 311

GFSFLT1_850_thetae_138.txt.gz
Theta_e
308 309 310 311 314 316 318 313 312 313 312 331 336 335 340 340 341 340 342 341 338 338 340 339 338 338 338 337 337 338 337 333
306 304 304 306 310 314 316 317 316 312 312 315 332 335 337 338 339 341 341 342 339 337 340 340 338 337 338 338 336 336 338 335
304 303 302 301 304 308 310 315 317 317 311 313 327 333 336 336 339 338 338 341 337 337 340 339 338 335 339 339 334 336 337 334
302 301 300 298 299 304 306 310 316 319 313 312 312 329 333 333 336 340 337 336 336 334 338 340 338 335 336 340 337 333 335 336
300 299 298 297 297 301 305 308 314 318 314 312 312 313 332 333 333 339 340 336 334 336 333 339 339 337 334 338 338 337 334 333
298 297 296 296 296 298 302 307 311 316 316 312 311 312 315 332 333 336 339 339 338 332 335 336 339 337 334 332 334 335 336 331
296 295 294 294 295 298 300 304 308 311 314 314 312 312 313 321 332 335 337 340 340 337 337 334 340 337 337 334 331 334 331 328
294 293 292 292 293 295 298 302 305 307 310 313 312 312 315 312 330 333 335 338 339 335 331 327 327 336 335 337 334 332 323 326
294 292 291 291 291 292 295 298 302 305 306 310 314 315 315 317 325 332 335 335 336 334 327 328 325 333 335 335 335 329 328 328
293 292 291 290 290 293 293 296 299 300 303 305 315 315 317 322 325 333 335 336 337 338 334 330 334 334 333 328 330 329 328 328
293 291 291 290 291 291 293 295 297 296 300 301 307 309 317 320 318 329 324 335 336 339 338 338 338 336 334 333 331 328 328 327
292 291 291 291 293 292 292 293 294 294 298 299 302 303 310 314 311 321 317 333 336 336 336 336 334 333 327 333 331 331 330 330
292 291 291 291 293 292 291 292 291 293 294 296 301 301 305 308 307 304 317 315 328 331 333 330 327 326 326 328 331 331 330 330
291 291 291 290 290 290 290 291 291 292 292 295 298 300 304 306 302 301 307 309 304 320 327 328 325 324 323 321 325 325 326 326
291 291 290 289 289 289 290 290 291 291 293 294 293 298 297 303 298 302 306 312 308 306 309 313 318 312 313 314 317 316 317 317
291 291 290 288 289 290 291 290 290 290 290 293 294 294 295 299 301 299 302 304 304 306 304 305 305 305 307 308 309 310 311 312
291 291 289 288 287 288 289 290 291 291 293 291 293 294 294 292 293 298 301 302 298 298 300 301 302 304 305 305 306 307 308 308
291 290 289 287 287 287 287 287 289 289 293 293 296 293 293 293 293 294 294 294 294 295 296 299 298 301 305 303 304 306 307 307
290 290 288 286 286 286 287 287 287 289 287 289 292 292 293 292 294 292 292 291 294 296 297 297 296 295 298 301 304 306 309 309

GFSFLT1_850_thetae_141.txt.gz
Theta_e
305 306 305 306 307 306 306 309 314 313 313 312 312 313 316 334 337 337 339 340 337 337 336 336 338 338 338 337 334 336 333 331
302 304 305 306 306 305 304 305 310 313 313 314 313 312 312 323 332 337 338 338 340 338 337 336 339 339 337 337 335 336 335 335
299 300 300 301 301 302 302 302 305 309 312 315 316 317 314 314 326 332 337 337 337 340 339 337 338 339 338 336 336 336 334 337
297 297 299 299 298 297 299 299 301 306 309 313 316 317 315 312 319 331 332 337 337 337 339 338 337 338 338 336 336 336 335 336
296 296 296 295 296 297 297 298 299 302 306 309 312 314 314 313 312 313 327 332 335 337 338 338 337 337 338 337 336 335 334 334
296 295 293 294 295 295 296 297 298 300 303 306 309 313 314 314 313 314 314 326 333 335 337 338 338 338 339 337 336 336 334 333
295 294 294 294 295 294 294 295 297 299 302 304 306 309 312 313 313 315 312 315 330 333 337 338 335 338 338 336 335 333 334 334
294 293 292 293 294 293 293 294 296 298 301 303 306 307 310 313 313 314 315 320 318 331 337 337 337 338 338 336 334 333 333 334
294 293 293 292 292 292 292 293 294 297 300 302 304 305 308 312 314 312 312 313 319 327 330 336 337 338 337 338 336 332 331 332
293 292 292 292 291 291 291 291 293 296 298 299 300 303 307 312 315 315 313 315 316 317 327 333 336 336 337 338 335 334 331 330
293 292 292 292 290 290 291 292 292 293 295 296 298 300 300 306 315 316 317 317 317 322 324 322 336 337 337 339 337 338 335 334
292 291 291 291 290 290 291 291 291 292 294 295 296 298 298 301 313 310 315 316 316 319 320 332 335 335 332 334 338 337 336 334
291 291 290 291 290 290 289 290 292 292 292 293 294 295 295 299 306 306 310 317 316 318 318 316 334 334 334 335 334 334 332 329
291 291 290 289 290 290 289 289 291 293 292 292 292 293 293 297 302 302 305 308 311 313 317 300 325 330 329 330 331 328 329 329
291 290 289 288 289 289 289 289 290 290 291 290 290 291 293 295 297 301 302 303 305 309 311 305 303 318 325 324 324 325 323 325
291 290 289 287 287 287 289 289 290 290 289 290 291 290 292 292 296 299 302 301 299 303 305 308 305 303 311 314 315 323 324 324
290 289 288 286 286 287 286 288 289 289 288 289 290 290 292 292 293 299 301 301 301 300 301 300 306 303 305 305 305 308 309 308
289 288 287 286 285 286 286 286 287 287 287 288 289 290 291 291 292 295 299 301 301 297 296 295 300 304 305 306 307 306 306 308
288 287 287 285 284 285 285 285 286 286 286 287 287 287 288 289 291 294 296 295 294 293 293 293 294 300 301 303 301 301 302 305